Time,TemperatureF,DewpointF,PressureIn,WindDirection,WindDirectionDegrees,WindSpeedMPH,WindSpeedGustMPH,Humidity,HourlyPrecipIn,Conditions,Clouds,dailyrainin,SoftwareType,DateUTC
2013-05-10 00:01:00,60.8,60.8,29.41,SW,232,3.6,3.6,100,0.08,,,0.00,VWS V14.01,2013-05-10 04:01:00,
2013-05-10 00:06:00,60.6,60.6,29.41,SW,225,2.7,2.7,100,0.08,,,0.00,VWS V14.01,2013-05-10 04:06:00,
2013-05-10 00:11:00,60.6,60.6,29.38,SW,224,5.4,5.4,100,0.08,,,0.00,VWS V14.01,2013-05-10 04:11:00,
2013-05-10 00:12:00,60.6,60.6,29.38,SW,224,5.4,5.4,100,0.08,,,0.00,VWS V14.01,2013-05-10 04:12:00,
2013-05-10 00:16:00,60.6,60.6,29.38,WSW,251,3.1,4.9,100,0.08,,,0.00,VWS V14.01,2013-05-10 04:16:00,
2013-05-10 00:17:00,60.6,60.6,29.38,WSW,251,3.1,3.1,100,0.08,,,0.00,VWS V14.01,2013-05-10 04:17:00,
2013-05-10 00:21:00,60.6,60.6,29.38,SW,236,5.8,5.8,100,0.12,,,0.04,VWS V14.01,2013-05-10 04:21:00,
2013-05-10 00:22:00,60.6,60.6,29.38,SSW,206,3.1,3.1,100,0.12,,,0.04,VWS V14.01,2013-05-10 04:22:00,
2013-05-10 00:26:00,60.6,60.6,29.38,SSW,206,3.1,3.1,100,0.12,,,0.04,VWS V14.01,2013-05-10 04:26:00,
2013-05-10 00:27:00,60.6,60.6,29.38,SSW,206,3.1,3.1,100,0.12,,,0.04,VWS V14.01,2013-05-10 04:27:00,
2013-05-10 00:31:00,60.6,60.6,29.38,SW,222,3.6,3.6,100,0.16,,,0.08,VWS V14.01,2013-05-10 04:31:00,
2013-05-10 00:32:00,60.6,60.6,29.38,SW,222,3.6,3.6,100,0.16,,,0.08,VWS V14.01,2013-05-10 04:32:00,
2013-05-10 00:36:00,60.4,60.4,29.38,SW,222,3.1,3.1,100,0.20,,,0.00,VWS V14.01,2013-05-10 04:36:00,
2013-05-10 00:37:00,60.4,60.4,29.38,West,280,5.8,5.8,100,0.20,,,0.12,VWS V14.01,2013-05-10 04:37:00,
2013-05-10 00:38:00,60.4,60.4,29.38,West,280,5.8,5.8,100,0.20,,,0.12,VWS V14.01,2013-05-10 04:38:00,
2013-05-10 00:41:00,60.4,60.4,29.38,West,274,3.6,3.6,100,0.24,,,0.16,VWS V14.01,2013-05-10 04:41:00,
2013-05-10 00:42:00,60.4,60.4,29.38,SW,234,4.0,4.0,100,0.20,,,0.16,VWS V14.01,2013-05-10 04:42:00,
2013-05-10 00:43:00,60.4,60.4,29.38,WSW,257,4.0,4.0,100,0.20,,,0.16,VWS V14.01,2013-05-10 04:43:00,
2013-05-10 00:46:00,60.4,60.4,29.38,SW,224,5.4,5.4,100,0.20,,,0.16,VWS V14.01,2013-05-10 04:46:00,
2013-05-10 00:47:00,60.4,60.4,29.38,SW,224,5.4,5.4,100,0.20,,,0.16,VWS V14.01,2013-05-10 04:47:00,
2013-05-10 00:48:00,60.4,60.4,29.38,SW,225,9.2,9.2,100,0.20,,,0.16,VWS V14.01,2013-05-10 04:48:00,
2013-05-10 00:51:00,60.4,60.4,29.38,WSW,243,4.0,4.0,100,0.28,,,0.24,VWS V14.01,2013-05-10 04:51:00,
2013-05-10 00:52:00,60.4,60.4,29.38,WSW,243,4.0,4.0,100,0.28,,,0.24,VWS V14.01,2013-05-10 04:52:00,
2013-05-10 00:53:00,60.4,60.4,29.35,WSW,243,4.0,4.0,100,0.28,,,0.24,VWS V14.01,2013-05-10 04:53:00,
2013-05-10 00:56:00,60.4,60.4,29.35,SW,230,3.6,3.6,100,0.24,,,0.24,VWS V14.01,2013-05-10 04:56:00,
2013-05-10 00:57:00,60.4,60.4,29.35,SW,230,3.6,3.6,100,0.24,,,0.24,VWS V14.01,2013-05-10 04:57:00,
2013-05-10 00:58:00,60.4,60.4,29.35,SW,230,3.6,3.6,100,0.24,,,0.24,VWS V14.01,2013-05-10 04:58:00,
2013-05-10 01:01:00,60.4,60.4,29.35,NNW,329,3.6,3.6,100,0.24,,,0.24,VWS V14.01,2013-05-10 05:01:00,
2013-05-10 01:02:00,60.4,60.4,29.35,NNW,329,3.6,3.6,100,0.24,,,0.24,VWS V14.01,2013-05-10 05:02:00,
2013-05-10 01:03:00,60.4,60.4,29.35,WSW,239,5.4,5.4,100,0.24,,,0.24,VWS V14.01,2013-05-10 05:03:00,
2013-05-10 01:07:00,60.4,60.4,29.35,North,353,3.6,3.6,100,0.24,,,0.24,VWS V14.01,2013-05-10 05:07:00,
2013-05-10 01:08:00,60.4,60.4,29.35,North,353,3.6,3.6,100,0.24,,,0.24,VWS V14.01,2013-05-10 05:08:00,
2013-05-10 01:09:00,60.4,60.4,29.35,SW,233,0.0,3.6,100,0.24,,,0.24,VWS V14.01,2013-05-10 05:09:00,
2013-05-10 01:12:00,60.4,60.4,29.35,NNW,348,4.0,4.0,100,0.24,,,0.24,VWS V14.01,2013-05-10 05:12:00,
2013-05-10 01:13:00,60.4,60.4,29.35,NNW,348,4.0,4.0,100,0.24,,,0.24,VWS V14.01,2013-05-10 05:13:00,
2013-05-10 01:14:00,60.4,60.4,29.35,NNW,348,4.0,4.0,100,0.24,,,0.24,VWS V14.01,2013-05-10 05:14:00,
2013-05-10 01:17:00,60.4,60.4,29.35,SW,221,4.9,4.9,100,0.24,,,0.24,VWS V14.01,2013-05-10 05:17:00,
2013-05-10 01:18:00,60.4,60.4,29.35,SW,221,4.9,4.9,100,0.24,,,0.24,VWS V14.01,2013-05-10 05:18:00,
2013-05-10 01:19:00,60.4,60.4,29.35,NW,308,5.8,5.8,100,0.24,,,0.24,VWS V14.01,2013-05-10 05:19:00,
2013-05-10 01:23:00,60.4,60.4,29.35,WSW,247,4.0,5.8,100,0.24,,,0.28,VWS V14.01,2013-05-10 05:23:00,
2013-05-10 01:24:00,60.4,60.4,29.35,NW,324,5.4,5.4,100,0.24,,,0.28,VWS V14.01,2013-05-10 05:24:00,
2013-05-10 01:28:00,60.4,60.4,29.35,SSE,147,0.0,0.0,100,0.20,,,0.28,VWS V14.01,2013-05-10 05:28:00,
2013-05-10 01:29:00,60.4,60.4,29.35,WNW,292,3.1,3.1,100,0.20,,,0.28,VWS V14.01,2013-05-10 05:29:00,
2013-05-10 01:33:00,60.6,60.6,29.35,NW,315,0.0,0.0,100,0.20,,,0.28,VWS V14.01,2013-05-10 05:33:00,
2013-05-10 01:34:00,60.6,60.6,29.35,NW,315,0.0,0.0,100,0.16,,,0.28,VWS V14.01,2013-05-10 05:34:00,
2013-05-10 01:38:00,60.6,60.6,29.35,West,266,2.7,2.7,100,0.16,,,0.28,VWS V14.01,2013-05-10 05:38:00,
2013-05-10 01:39:00,60.6,60.6,29.35,WNW,290,0.0,0.0,100,0.16,,,0.28,VWS V14.01,2013-05-10 05:39:00,
2013-05-10 01:43:00,60.6,60.6,29.35,NW,309,5.8,5.8,100,0.12,,,0.28,VWS V14.01,2013-05-10 05:43:00,
2013-05-10 01:44:00,60.6,60.6,29.35,NW,309,5.8,5.8,100,0.12,,,0.28,VWS V14.01,2013-05-10 05:44:00,
2013-05-10 01:45:00,60.6,60.6,29.35,NW,309,5.8,5.8,100,0.12,,,0.28,VWS V14.01,2013-05-10 05:45:00,
2013-05-10 01:48:00,60.6,60.6,29.35,NW,314,0.0,0.0,100,0.16,,,0.31,VWS V14.01,2013-05-10 05:48:00,
2013-05-10 01:49:00,60.8,60.8,29.35,West,278,4.9,4.9,100,0.16,,,0.31,VWS V14.01,2013-05-10 05:49:00,
2013-05-10 01:50:00,60.8,60.8,29.35,West,278,4.9,4.9,100,0.08,,,0.31,VWS V14.01,2013-05-10 05:50:00,
2013-05-10 01:53:00,60.8,60.8,29.35,NNW,331,4.0,4.0,100,0.08,,,0.31,VWS V14.01,2013-05-10 05:53:00,
2013-05-10 01:54:00,60.8,60.8,29.35,NNW,331,4.0,4.0,100,0.08,,,0.31,VWS V14.01,2013-05-10 05:54:00,
2013-05-10 01:55:00,60.8,60.8,29.35,NNW,336,3.1,3.1,100,0.08,,,0.31,VWS V14.01,2013-05-10 05:55:00,
2013-05-10 01:58:00,60.8,60.8,29.35,WNW,302,2.2,2.2,100,0.08,,,0.31,VWS V14.01,2013-05-10 05:58:00,
2013-05-10 01:59:00,60.8,60.8,29.35,WNW,302,2.2,2.2,100,0.08,,,0.31,VWS V14.01,2013-05-10 05:59:00,
2013-05-10 02:00:00,60.8,60.8,29.35,NNW,337,0.0,0.0,100,0.08,,,0.31,VWS V14.01,2013-05-10 06:00:00,
2013-05-10 02:03:00,60.8,60.8,29.35,North,2,6.3,6.3,100,0.08,,,0.31,VWS V14.01,2013-05-10 06:03:00,
2013-05-10 02:04:00,60.8,60.8,29.35,North,2,6.3,6.3,100,0.08,,,0.31,VWS V14.01,2013-05-10 06:04:00,
2013-05-10 02:05:00,61.0,61.0,29.35,West,277,0.0,6.3,100,0.08,,,0.31,VWS V14.01,2013-05-10 06:05:00,
2013-05-10 02:08:00,61.0,61.0,29.35,West,278,2.7,2.7,100,0.08,,,0.31,VWS V14.01,2013-05-10 06:08:00,
2013-05-10 02:09:00,61.0,61.0,29.35,West,278,2.7,2.7,100,0.08,,,0.31,VWS V14.01,2013-05-10 06:09:00,
2013-05-10 02:10:00,61.0,61.0,29.35,West,278,2.7,2.7,100,0.08,,,0.31,VWS V14.01,2013-05-10 06:10:00,
2013-05-10 02:13:00,61.0,61.0,29.35,NW,315,2.7,6.3,100,0.08,,,0.31,VWS V14.01,2013-05-10 06:13:00,
2013-05-10 02:14:00,61.0,61.0,29.35,NW,315,2.7,2.7,100,0.08,,,0.31,VWS V14.01,2013-05-10 06:14:00,
2013-05-10 02:15:00,61.0,61.0,29.35,NW,315,2.7,2.7,100,0.08,,,0.31,VWS V14.01,2013-05-10 06:15:00,
2013-05-10 02:18:00,61.2,61.2,29.35,West,266,2.7,2.7,100,0.08,,,0.31,VWS V14.01,2013-05-10 06:18:00,
2013-05-10 02:19:00,61.2,61.2,29.35,West,266,2.7,2.7,100,0.08,,,0.31,VWS V14.01,2013-05-10 06:19:00,
2013-05-10 02:20:00,61.2,61.2,29.35,North,5,3.6,3.6,100,0.08,,,0.31,VWS V14.01,2013-05-10 06:20:00,
2013-05-10 02:21:00,61.2,61.2,29.35,North,3,0.0,3.6,100,0.08,,,0.31,VWS V14.01,2013-05-10 06:21:00,
2013-05-10 02:24:00,61.5,61.5,29.35,North,7,0.0,0.0,100,0.04,,,0.31,VWS V14.01,2013-05-10 06:24:00,
2013-05-10 02:25:00,61.5,61.5,29.35,North,10,0.0,0.0,100,0.04,,,0.31,VWS V14.01,2013-05-10 06:25:00,
2013-05-10 02:26:00,61.5,61.5,29.35,North,10,0.0,0.0,100,0.04,,,0.31,VWS V14.01,2013-05-10 06:26:00,
2013-05-10 02:29:00,61.5,61.5,29.35,NW,309,6.3,6.3,100,0.04,,,0.31,VWS V14.01,2013-05-10 06:29:00,
2013-05-10 02:30:00,61.5,61.5,29.35,NW,309,6.3,6.3,100,0.04,,,0.31,VWS V14.01,2013-05-10 06:30:00,
2013-05-10 02:31:00,61.5,61.5,29.35,NNW,341,2.7,6.3,100,0.04,,,0.31,VWS V14.01,2013-05-10 06:31:00,
2013-05-10 02:34:00,61.7,61.7,29.35,North,0,4.0,4.0,100,0.04,,,0.31,VWS V14.01,2013-05-10 06:34:00,
2013-05-10 02:35:00,61.7,61.7,29.35,North,0,4.0,4.0,100,0.04,,,0.31,VWS V14.01,2013-05-10 06:35:00,
2013-05-10 02:36:00,61.7,61.7,29.35,North,0,4.0,4.0,100,0.04,,,0.31,VWS V14.01,2013-05-10 06:36:00,
2013-05-10 02:39:00,61.7,61.7,29.35,North,0,4.0,4.0,100,0.04,,,0.31,VWS V14.01,2013-05-10 06:39:00,
2013-05-10 02:41:00,61.7,61.7,29.35,North,0,4.0,4.0,100,0.04,,,0.31,VWS V14.01,2013-05-10 06:41:00,
2013-05-10 02:44:00,61.9,61.9,29.35,West,276,0.0,3.6,100,0.04,,,0.31,VWS V14.01,2013-05-10 06:44:00,
2013-05-10 02:45:00,61.9,61.9,29.35,West,276,0.0,0.0,100,0.04,,,0.31,VWS V14.01,2013-05-10 06:45:00,
2013-05-10 02:46:00,61.9,61.9,29.35,NW,315,4.9,4.9,100,0.04,,,0.31,VWS V14.01,2013-05-10 06:46:00,
2013-05-10 02:47:00,61.9,61.9,29.35,NW,315,4.9,4.9,100,0.00,,,0.31,VWS V14.01,2013-05-10 06:47:00,
2013-05-10 02:49:00,61.9,61.9,29.35,North,0,3.1,3.1,100,0.00,,,0.31,VWS V14.01,2013-05-10 06:49:00,
2013-05-10 02:50:00,61.9,61.9,29.35,North,0,3.1,3.1,100,0.00,,,0.31,VWS V14.01,2013-05-10 06:50:00,
2013-05-10 02:51:00,61.9,61.9,29.35,North,0,3.1,3.1,100,0.00,,,0.31,VWS V14.01,2013-05-10 06:51:00,
2013-05-10 02:52:00,61.9,61.9,29.35,North,0,3.1,3.1,100,0.00,,,0.31,VWS V14.01,2013-05-10 06:52:00,
2013-05-10 02:54:00,61.9,61.9,29.35,North,0,3.1,3.1,100,0.00,,,0.31,VWS V14.01,2013-05-10 06:54:00,
2013-05-10 02:55:00,61.9,61.9,29.35,NNW,335,3.1,3.1,100,0.00,,,0.31,VWS V14.01,2013-05-10 06:55:00,
2013-05-10 02:56:00,61.9,61.9,29.35,NNW,335,0.0,0.0,100,0.00,,,0.31,VWS V14.01,2013-05-10 06:56:00,
2013-05-10 02:57:00,61.9,61.9,29.35,NNW,341,3.1,3.6,100,0.00,,,0.31,VWS V14.01,2013-05-10 06:57:00,
2013-05-10 02:59:00,62.1,62.1,29.32,NNE,15,2.7,3.1,100,0.00,,,0.31,VWS V14.01,2013-05-10 06:59:00,
2013-05-10 03:00:00,62.1,62.1,29.32,NNE,15,2.7,3.1,100,0.00,,,0.31,VWS V14.01,2013-05-10 07:00:00,
2013-05-10 03:01:00,62.1,62.1,29.32,NNE,15,2.7,2.7,100,0.00,,,0.31,VWS V14.01,2013-05-10 07:01:00,
2013-05-10 03:02:00,62.1,62.1,29.32,North,357,4.0,4.0,100,0.00,,,0.31,VWS V14.01,2013-05-10 07:02:00,
2013-05-10 03:04:00,62.1,62.1,29.32,North,357,4.0,4.0,100,0.00,,,0.31,VWS V14.01,2013-05-10 07:04:00,
2013-05-10 03:05:00,62.1,62.1,29.32,North,357,4.0,4.0,100,0.00,,,0.31,VWS V14.01,2013-05-10 07:05:00,
2013-05-10 03:06:00,62.1,62.1,29.32,North,357,4.0,4.0,100,0.00,,,0.31,VWS V14.01,2013-05-10 07:06:00,
2013-05-10 03:07:00,62.2,62.2,29.32,North,357,4.0,4.0,100,0.00,,,0.31,VWS V14.01,2013-05-10 07:07:00,
2013-05-10 03:09:00,62.2,62.2,29.32,North,0,6.7,6.7,100,0.00,,,0.31,VWS V14.01,2013-05-10 07:09:00,
2013-05-10 03:10:00,62.2,62.2,29.32,North,0,6.7,6.7,100,0.00,,,0.31,VWS V14.01,2013-05-10 07:10:00,
2013-05-10 03:11:00,62.2,62.2,29.32,North,0,6.7,6.7,100,0.00,,,0.31,VWS V14.01,2013-05-10 07:11:00,
2013-05-10 03:12:00,62.2,62.2,29.32,WNW,297,0.0,6.7,100,0.00,,,0.31,VWS V14.01,2013-05-10 07:12:00,
2013-05-10 03:15:00,62.2,62.2,29.32,North,0,4.0,4.0,100,0.00,,,0.31,VWS V14.01,2013-05-10 07:15:00,
2013-05-10 03:17:00,62.2,62.2,29.32,NNW,334,4.0,4.0,100,0.00,,,0.31,VWS V14.01,2013-05-10 07:17:00,
2013-05-10 03:20:00,62.2,62.2,29.32,NNW,334,4.0,4.0,100,0.00,,,0.31,VWS V14.01,2013-05-10 07:20:00,
2013-05-10 03:22:00,62.2,62.2,29.32,NNW,341,2.7,2.7,100,0.00,,,0.31,VWS V14.01,2013-05-10 07:22:00,
2013-05-10 03:23:00,62.2,62.2,29.32,NW,311,3.6,3.6,100,0.00,,,0.31,VWS V14.01,2013-05-10 07:23:00,
2013-05-10 03:25:00,62.2,62.2,29.32,NW,313,2.7,2.7,100,0.00,,,0.31,VWS V14.01,2013-05-10 07:25:00,
2013-05-10 03:27:00,62.2,62.2,29.32,NNW,338,0.0,0.0,100,0.00,,,0.31,VWS V14.01,2013-05-10 07:27:00,
2013-05-10 03:28:00,62.2,62.2,29.32,North,4,2.2,2.2,100,0.00,,,0.31,VWS V14.01,2013-05-10 07:28:00,
2013-05-10 03:30:00,62.2,62.2,29.32,North,4,2.2,2.2,100,0.00,,,0.31,VWS V14.01,2013-05-10 07:30:00,
2013-05-10 03:31:00,62.2,62.2,29.32,NNW,331,2.7,2.7,100,0.00,,,0.31,VWS V14.01,2013-05-10 07:31:00,
2013-05-10 03:32:00,62.2,62.2,29.32,NNW,331,2.7,2.7,100,0.00,,,0.31,VWS V14.01,2013-05-10 07:32:00,
2013-05-10 03:33:00,62.4,62.4,29.32,NNW,331,2.7,2.7,100,0.00,,,0.31,VWS V14.01,2013-05-10 07:33:00,
2013-05-10 03:35:00,62.4,62.4,29.32,North,0,2.7,2.7,100,0.00,,,0.31,VWS V14.01,2013-05-10 07:35:00,
2013-05-10 03:36:00,62.4,62.4,29.32,North,0,2.7,2.7,100,0.00,,,0.31,VWS V14.01,2013-05-10 07:36:00,
2013-05-10 03:37:00,62.4,62.4,29.32,North,0,2.7,2.7,100,0.00,,,0.31,VWS V14.01,2013-05-10 07:37:00,
2013-05-10 03:38:00,62.4,62.4,29.32,North,0,0.0,0.0,100,0.00,,,0.31,VWS V14.01,2013-05-10 07:38:00,
2013-05-10 03:40:00,62.4,62.4,29.32,NW,318,3.6,3.6,100,0.00,,,0.31,VWS V14.01,2013-05-10 07:40:00,
2013-05-10 03:41:00,62.4,62.4,29.32,NW,318,3.6,3.6,100,0.00,,,0.31,VWS V14.01,2013-05-10 07:41:00,
2013-05-10 03:42:00,62.4,62.4,29.32,NW,318,3.6,3.6,100,0.00,,,0.31,VWS V14.01,2013-05-10 07:42:00,
2013-05-10 03:43:00,62.4,62.4,29.32,NW,318,3.6,3.6,100,0.00,,,0.31,VWS V14.01,2013-05-10 07:43:00,
2013-05-10 03:45:00,62.4,62.4,29.32,WNW,292,2.7,2.7,100,0.00,,,0.31,VWS V14.01,2013-05-10 07:45:00,
2013-05-10 03:46:00,62.4,62.4,29.32,WNW,292,2.7,2.7,100,0.00,,,0.31,VWS V14.01,2013-05-10 07:46:00,
2013-05-10 03:47:00,62.4,62.4,29.32,WNW,292,2.7,2.7,100,0.00,,,0.31,VWS V14.01,2013-05-10 07:47:00,
2013-05-10 03:48:00,62.4,62.4,29.32,North,10,2.7,2.7,100,0.00,,,0.31,VWS V14.01,2013-05-10 07:48:00,
2013-05-10 03:50:00,62.6,62.6,29.32,North,10,2.7,2.7,100,0.00,,,0.31,VWS V14.01,2013-05-10 07:50:00,
2013-05-10 03:51:00,62.6,62.6,29.32,NNW,327,3.1,3.1,100,0.00,,,0.31,VWS V14.01,2013-05-10 07:51:00,
2013-05-10 03:52:00,62.6,62.6,29.32,NNW,327,3.1,3.1,100,0.00,,,0.31,VWS V14.01,2013-05-10 07:52:00,
2013-05-10 03:53:00,62.6,62.6,29.32,North,8,5.4,5.4,100,0.00,,,0.31,VWS V14.01,2013-05-10 07:53:00,
2013-05-10 03:55:00,62.6,62.6,29.32,North,8,5.4,5.4,100,0.00,,,0.31,VWS V14.01,2013-05-10 07:55:00,
2013-05-10 03:56:00,62.6,62.6,29.32,North,8,5.4,5.4,100,0.00,,,0.31,VWS V14.01,2013-05-10 07:56:00,
2013-05-10 03:57:00,62.6,62.6,29.32,North,8,5.4,5.4,100,0.00,,,0.31,VWS V14.01,2013-05-10 07:57:00,
2013-05-10 03:58:00,62.6,62.6,29.32,NNW,348,8.1,8.1,100,0.00,,,0.31,VWS V14.01,2013-05-10 07:58:00,
2013-05-10 04:00:00,62.6,62.6,29.32,NNW,331,0.0,8.1,100,0.00,,,0.31,VWS V14.01,2013-05-10 08:00:00,
2013-05-10 04:01:00,62.6,62.6,29.32,NNW,331,0.0,0.0,100,0.00,,,0.31,VWS V14.01,2013-05-10 08:01:00,
2013-05-10 04:02:00,62.6,62.6,29.32,NNW,331,0.0,0.0,100,0.00,,,0.31,VWS V14.01,2013-05-10 08:02:00,
2013-05-10 04:04:00,62.6,62.6,29.32,West,259,0.0,2.2,100,0.00,,,0.31,VWS V14.01,2013-05-10 08:04:00,
2013-05-10 04:05:00,62.6,62.6,29.32,North,0,4.0,4.0,100,0.00,,,0.31,VWS V14.01,2013-05-10 08:05:00,
2013-05-10 04:06:00,62.6,62.6,29.32,North,0,4.0,4.0,100,0.00,,,0.31,VWS V14.01,2013-05-10 08:06:00,
2013-05-10 04:07:00,62.6,62.6,29.32,North,0,4.0,4.0,100,0.00,,,0.31,VWS V14.01,2013-05-10 08:07:00,
2013-05-10 04:09:00,62.6,62.6,29.32,North,0,4.0,4.0,100,0.00,,,0.31,VWS V14.01,2013-05-10 08:09:00,
2013-05-10 04:11:00,62.6,62.6,29.32,North,0,4.0,4.0,100,0.00,,,0.31,VWS V14.01,2013-05-10 08:11:00,
2013-05-10 04:13:00,62.6,62.6,29.32,NNW,340,2.7,4.0,100,0.00,,,0.31,VWS V14.01,2013-05-10 08:13:00,
2013-05-10 04:14:00,62.6,62.6,29.32,NNW,340,2.7,2.7,100,0.00,,,0.31,VWS V14.01,2013-05-10 08:14:00,
2013-05-10 04:16:00,62.6,62.6,29.32,NNW,334,0.0,0.0,100,0.00,,,0.31,VWS V14.01,2013-05-10 08:16:00,
2013-05-10 04:18:00,62.6,62.6,29.32,NNW,334,0.0,0.0,100,0.00,,,0.31,VWS V14.01,2013-05-10 08:18:00,
2013-05-10 04:19:00,62.6,62.6,29.32,WNW,303,3.6,3.6,100,0.00,,,0.31,VWS V14.01,2013-05-10 08:19:00,
2013-05-10 04:21:00,62.6,62.6,29.32,WNW,303,3.6,3.6,100,0.00,,,0.31,VWS V14.01,2013-05-10 08:21:00,
2013-05-10 04:23:00,62.6,62.6,29.32,North,357,3.1,3.1,100,0.00,,,0.31,VWS V14.01,2013-05-10 08:23:00,
2013-05-10 04:24:00,62.6,62.6,29.32,North,357,3.1,3.1,100,0.00,,,0.31,VWS V14.01,2013-05-10 08:24:00,
2013-05-10 04:26:00,62.6,62.6,29.32,NNW,342,3.1,3.1,100,0.00,,,0.31,VWS V14.01,2013-05-10 08:26:00,
2013-05-10 04:28:00,62.6,62.6,29.32,NNE,14,4.5,4.5,100,0.00,,,0.31,VWS V14.01,2013-05-10 08:28:00,
2013-05-10 04:29:00,62.6,62.6,29.32,NNE,14,4.5,4.5,100,0.00,,,0.31,VWS V14.01,2013-05-10 08:29:00,
2013-05-10 04:31:00,62.6,62.6,29.32,NW,326,0.0,3.6,100,0.00,,,0.31,VWS V14.01,2013-05-10 08:31:00,
2013-05-10 04:33:00,62.4,62.4,29.32,NNW,338,3.1,3.1,100,0.00,,,0.31,VWS V14.01,2013-05-10 08:33:00,
2013-05-10 04:34:00,62.4,62.4,29.32,NNW,341,3.6,3.6,100,0.00,,,0.31,VWS V14.01,2013-05-10 08:34:00,
2013-05-10 04:36:00,62.4,62.4,29.32,NW,319,0.0,3.6,100,0.00,,,0.31,VWS V14.01,2013-05-10 08:36:00,
2013-05-10 04:37:00,62.4,62.4,29.32,NW,319,0.0,0.0,100,0.00,,,0.31,VWS V14.01,2013-05-10 08:37:00,
2013-05-10 04:38:00,62.4,62.4,29.32,NW,319,0.0,0.0,100,0.00,,,0.31,VWS V14.01,2013-05-10 08:38:00,
2013-05-10 04:39:00,62.4,62.4,29.32,NW,319,0.0,0.0,100,0.00,,,0.31,VWS V14.01,2013-05-10 08:39:00,
2013-05-10 04:42:00,62.4,62.4,29.32,North,357,0.0,0.0,100,0.00,,,0.31,VWS V14.01,2013-05-10 08:42:00,
2013-05-10 04:43:00,62.2,62.2,29.32,North,357,0.0,0.0,100,0.00,,,0.00,VWS V14.01,2013-05-10 08:43:00,
2013-05-10 04:44:00,62.2,62.2,29.32,North,357,0.0,0.0,100,0.00,,,0.31,VWS V14.01,2013-05-10 08:44:00,
2013-05-10 04:47:00,62.2,62.2,29.32,NNW,343,0.0,0.0,100,0.00,,,0.31,VWS V14.01,2013-05-10 08:47:00,
2013-05-10 04:48:00,62.2,62.2,29.32,NNW,343,0.0,0.0,100,0.00,,,0.31,VWS V14.01,2013-05-10 08:48:00,
2013-05-10 04:49:00,62.2,62.2,29.32,NNW,343,0.0,0.0,100,0.00,,,0.31,VWS V14.01,2013-05-10 08:49:00,
2013-05-10 04:50:00,62.2,62.2,29.32,NNW,343,0.0,0.0,100,0.00,,,0.31,VWS V14.01,2013-05-10 08:50:00,
2013-05-10 04:52:00,62.1,62.1,29.32,NNW,343,0.0,0.0,100,0.00,,,0.31,VWS V14.01,2013-05-10 08:52:00,
2013-05-10 04:53:00,62.1,62.1,29.32,NNW,343,0.0,0.0,100,0.00,,,0.31,VWS V14.01,2013-05-10 08:53:00,
2013-05-10 04:54:00,62.1,62.1,29.32,NW,309,0.0,0.0,100,0.00,,,0.31,VWS V14.01,2013-05-10 08:54:00,
2013-05-10 04:55:00,62.1,62.1,29.32,NW,309,0.0,0.0,100,0.00,,,0.31,VWS V14.01,2013-05-10 08:55:00,
2013-05-10 04:57:00,62.1,62.1,29.32,NNE,32,3.1,3.1,100,0.00,,,0.31,VWS V14.01,2013-05-10 08:57:00,
2013-05-10 04:59:00,62.1,62.1,29.32,North,353,0.0,0.0,100,0.00,,,0.31,VWS V14.01,2013-05-10 08:59:00,
2013-05-10 05:00:00,61.9,61.9,29.32,North,353,3.6,3.6,100,0.00,,,0.31,VWS V14.01,2013-05-10 09:00:00,
2013-05-10 05:02:00,61.9,61.9,29.32,NNW,334,0.0,0.0,100,0.00,,,0.31,VWS V14.01,2013-05-10 09:02:00,
2013-05-10 05:03:00,61.9,61.9,29.32,NNW,334,0.0,0.0,100,0.00,,,0.31,VWS V14.01,2013-05-10 09:03:00,
2013-05-10 05:04:00,61.9,61.9,29.32,WNW,291,0.0,0.0,100,0.00,,,0.31,VWS V14.01,2013-05-10 09:04:00,
2013-05-10 05:05:00,61.9,61.9,29.32,WNW,291,0.0,0.0,100,0.00,,,0.31,VWS V14.01,2013-05-10 09:05:00,
2013-05-10 05:07:00,61.9,61.9,29.32,NW,318,4.9,4.9,100,0.00,,,0.31,VWS V14.01,2013-05-10 09:07:00,
2013-05-10 05:09:00,61.9,61.9,29.32,North,0,0.0,0.0,100,0.00,,,0.31,VWS V14.01,2013-05-10 09:09:00,
2013-05-10 05:10:00,61.7,61.7,29.32,North,0,0.0,0.0,100,0.00,,,0.31,VWS V14.01,2013-05-10 09:10:00,
2013-05-10 05:12:00,61.7,61.7,29.32,NNW,345,0.0,0.0,100,0.00,,,0.31,VWS V14.01,2013-05-10 09:12:00,
2013-05-10 05:14:00,61.7,61.7,29.32,NNW,345,0.0,0.0,100,0.00,,,0.31,VWS V14.01,2013-05-10 09:14:00,
2013-05-10 05:15:00,61.7,61.7,29.32,NNW,345,0.0,0.0,100,0.00,,,0.31,VWS V14.01,2013-05-10 09:15:00,
2013-05-10 05:17:00,61.7,61.7,29.32,North,8,3.1,3.1,100,0.00,,,0.31,VWS V14.01,2013-05-10 09:17:00,
2013-05-10 05:18:00,61.7,61.7,29.32,North,10,4.0,4.0,100,0.00,,,0.31,VWS V14.01,2013-05-10 09:18:00,
2013-05-10 05:19:00,61.7,61.7,29.32,North,10,4.0,4.0,100,0.00,,,0.31,VWS V14.01,2013-05-10 09:19:00,
2013-05-10 05:20:00,61.7,61.7,29.32,North,10,4.0,4.0,100,0.00,,,0.31,VWS V14.01,2013-05-10 09:20:00,
2013-05-10 05:21:00,61.7,61.7,29.32,North,10,4.0,4.0,100,0.00,,,0.31,VWS V14.01,2013-05-10 09:21:00,
2013-05-10 05:22:00,61.7,61.7,29.32,NNW,348,0.0,0.0,100,0.00,,,0.31,VWS V14.01,2013-05-10 09:22:00,
2013-05-10 05:23:00,61.7,61.7,29.32,NNW,348,0.0,0.0,100,0.00,,,0.31,VWS V14.01,2013-05-10 09:23:00,
2013-05-10 05:24:00,61.7,61.7,29.32,NNE,18,0.0,0.0,100,0.00,,,0.31,VWS V14.01,2013-05-10 09:24:00,
2013-05-10 05:25:00,61.7,61.7,29.32,NNE,18,0.0,0.0,100,0.00,,,0.31,VWS V14.01,2013-05-10 09:25:00,
2013-05-10 05:26:00,61.7,61.7,29.32,North,0,2.2,2.2,100,0.00,,,0.31,VWS V14.01,2013-05-10 09:26:00,
2013-05-10 05:27:00,61.7,61.7,29.32,North,0,2.2,2.2,100,0.00,,,0.31,VWS V14.01,2013-05-10 09:27:00,
2013-05-10 05:28:00,61.7,61.7,29.32,North,0,2.2,2.2,100,0.00,,,0.31,VWS V14.01,2013-05-10 09:28:00,
2013-05-10 05:30:00,61.7,61.7,29.32,NNE,20,0.0,0.0,100,0.00,,,0.31,VWS V14.01,2013-05-10 09:30:00,
2013-05-10 05:31:00,61.7,61.7,29.32,NNE,20,0.0,0.0,100,0.00,,,0.31,VWS V14.01,2013-05-10 09:31:00,
2013-05-10 05:32:00,61.7,61.7,29.32,North,4,0.0,0.0,100,0.00,,,0.31,VWS V14.01,2013-05-10 09:32:00,
2013-05-10 05:33:00,61.7,61.7,29.32,North,4,0.0,0.0,100,0.00,,,0.31,VWS V14.01,2013-05-10 09:33:00,
2013-05-10 05:35:00,61.7,61.7,29.32,NNW,341,0.0,0.0,100,0.00,,,0.31,VWS V14.01,2013-05-10 09:35:00,
2013-05-10 05:36:00,61.7,61.7,29.32,NNW,341,0.0,0.0,100,0.00,,,0.31,VWS V14.01,2013-05-10 09:36:00,
2013-05-10 05:38:00,61.7,61.7,29.32,North,11,5.8,5.8,100,0.00,,,0.31,VWS V14.01,2013-05-10 09:38:00,
2013-05-10 05:40:00,61.7,61.7,29.32,NW,310,2.2,2.2,100,0.00,,,0.31,VWS V14.01,2013-05-10 09:40:00,
2013-05-10 05:41:00,61.7,61.7,29.32,NW,310,2.2,2.2,100,0.00,,,0.31,VWS V14.01,2013-05-10 09:41:00,
2013-05-10 05:43:00,61.7,61.7,29.32,WNW,291,5.4,5.4,100,0.00,,,0.31,VWS V14.01,2013-05-10 09:43:00,
2013-05-10 05:45:00,61.7,61.7,29.32,North,1,0.0,3.1,100,0.00,,,0.31,VWS V14.01,2013-05-10 09:45:00,
2013-05-10 05:46:00,61.7,61.7,29.32,North,1,0.0,3.1,100,0.00,,,0.31,VWS V14.01,2013-05-10 09:46:00,
2013-05-10 05:47:00,61.7,61.7,29.32,North,1,0.0,0.0,100,0.00,,,0.31,VWS V14.01,2013-05-10 09:47:00,
2013-05-10 05:48:00,61.7,61.7,29.32,North,357,0.0,0.0,100,0.00,,,0.31,VWS V14.01,2013-05-10 09:48:00,
2013-05-10 05:50:00,61.7,61.7,29.32,North,2,0.0,0.0,100,0.00,,,0.31,VWS V14.01,2013-05-10 09:50:00,
2013-05-10 05:51:00,61.7,61.7,29.32,North,2,0.0,0.0,100,0.00,,,0.31,VWS V14.01,2013-05-10 09:51:00,
2013-05-10 05:52:00,61.7,61.7,29.32,North,4,2.7,2.7,100,0.00,,,0.31,VWS V14.01,2013-05-10 09:52:00,
2013-05-10 05:53:00,61.7,61.7,29.29,North,4,2.7,2.7,100,0.00,,,0.31,VWS V14.01,2013-05-10 09:53:00,
2013-05-10 05:55:00,61.7,61.7,29.29,North,4,2.7,2.7,100,0.00,,,0.31,VWS V14.01,2013-05-10 09:55:00,
2013-05-10 05:56:00,61.7,61.7,29.29,North,4,2.7,2.7,100,0.00,,,0.31,VWS V14.01,2013-05-10 09:56:00,
2013-05-10 05:57:00,61.7,61.7,29.29,WNW,299,2.2,2.2,100,0.00,,,0.31,VWS V14.01,2013-05-10 09:57:00,
2013-05-10 05:59:00,61.7,61.7,29.29,WNW,301,2.7,2.7,100,0.00,,,0.31,VWS V14.01,2013-05-10 09:59:00,
2013-05-10 06:00:00,61.5,61.5,29.29,WNW,301,2.7,2.7,100,0.00,,,0.31,VWS V14.01,2013-05-10 10:00:00,
2013-05-10 06:01:00,61.5,61.5,29.29,NNW,338,0.0,2.2,100,0.00,,,0.31,VWS V14.01,2013-05-10 10:01:00,
2013-05-10 06:02:00,61.3,61.3,29.29,NNW,338,0.0,0.0,100,0.00,,,0.31,VWS V14.01,2013-05-10 10:02:00,
2013-05-10 06:04:00,61.3,61.3,29.29,WSW,253,0.0,0.0,100,0.00,,,0.31,VWS V14.01,2013-05-10 10:04:00,
2013-05-10 06:05:00,61.3,61.3,29.29,NW,308,0.0,2.2,100,0.00,,,0.31,VWS V14.01,2013-05-10 10:05:00,
2013-05-10 06:06:00,61.3,61.3,29.29,NW,308,0.0,0.0,100,0.00,,,0.31,VWS V14.01,2013-05-10 10:06:00,
2013-05-10 06:07:00,61.3,61.3,29.29,NW,323,2.2,2.2,100,0.00,,,0.31,VWS V14.01,2013-05-10 10:07:00,
2013-05-10 06:09:00,61.2,61.2,29.29,NW,323,2.2,2.2,100,0.00,,,0.31,VWS V14.01,2013-05-10 10:09:00,
2013-05-10 06:11:00,61.2,61.2,29.29,NNE,18,2.2,2.7,100,0.00,,,0.31,VWS V14.01,2013-05-10 10:11:00,
2013-05-10 06:12:00,61.0,61.0,29.29,NNE,18,0.0,2.2,100,0.00,,,0.31,VWS V14.01,2013-05-10 10:12:00,
2013-05-10 06:13:00,61.0,61.0,29.29,NNE,18,0.0,0.0,100,0.00,,,0.31,VWS V14.01,2013-05-10 10:13:00,
2013-05-10 06:14:00,61.0,61.0,29.29,NNE,18,0.0,0.0,100,0.00,,,0.31,VWS V14.01,2013-05-10 10:14:00,
2013-05-10 06:16:00,61.0,61.0,29.29,NW,306,3.1,3.1,100,0.00,,,0.31,VWS V14.01,2013-05-10 10:16:00,
2013-05-10 06:18:00,60.8,60.8,29.29,NW,306,3.1,3.1,100,0.00,,,0.31,VWS V14.01,2013-05-10 10:18:00,
2013-05-10 06:19:00,60.8,60.8,29.29,NNW,336,0.0,3.1,100,0.00,,,0.31,VWS V14.01,2013-05-10 10:19:00,
2013-05-10 06:21:00,60.8,60.8,29.29,NNW,337,0.0,0.0,100,0.00,,,0.31,VWS V14.01,2013-05-10 10:21:00,
2013-05-10 06:23:00,60.8,60.8,29.29,NW,317,0.0,0.0,100,0.00,,,0.31,VWS V14.01,2013-05-10 10:23:00,
2013-05-10 06:24:00,60.8,60.8,29.29,NNW,330,3.6,3.6,100,0.00,,,0.31,VWS V14.01,2013-05-10 10:24:00,
2013-05-10 06:26:00,60.8,60.8,29.29,North,353,3.1,3.1,100,0.00,,,0.31,VWS V14.01,2013-05-10 10:26:00,
2013-05-10 06:27:00,60.8,60.8,29.29,North,353,3.1,3.1,100,0.00,,,0.31,VWS V14.01,2013-05-10 10:27:00,
2013-05-10 06:28:00,60.8,60.8,29.29,North,353,0.0,3.1,100,0.00,,,0.31,VWS V14.01,2013-05-10 10:28:00,
2013-05-10 06:29:00,60.8,60.8,29.29,North,353,0.0,0.0,100,0.00,,,0.31,VWS V14.01,2013-05-10 10:29:00,
2013-05-10 06:30:00,60.8,60.8,29.29,North,353,0.0,0.0,100,0.00,,,0.31,VWS V14.01,2013-05-10 10:30:00,
2013-05-10 06:31:00,60.8,60.8,29.29,North,353,0.0,0.0,100,0.00,,,0.31,VWS V14.01,2013-05-10 10:31:00,
2013-05-10 06:32:00,60.8,60.8,29.29,North,353,0.0,0.0,100,0.00,,,0.31,VWS V14.01,2013-05-10 10:32:00,
2013-05-10 06:33:00,60.8,60.8,29.29,North,0,0.0,0.0,100,0.00,,,0.31,VWS V14.01,2013-05-10 10:33:00,
2013-05-10 06:34:00,60.8,60.8,29.29,North,0,0.0,0.0,100,0.00,,,0.31,VWS V14.01,2013-05-10 10:34:00,
2013-05-10 06:35:00,60.8,60.8,29.29,NNW,334,0.0,0.0,100,0.00,,,0.31,VWS V14.01,2013-05-10 10:35:00,
2013-05-10 06:36:00,60.8,60.8,29.29,WNW,302,3.6,3.6,100,0.00,,,0.31,VWS V14.01,2013-05-10 10:36:00,
2013-05-10 06:37:00,60.8,60.8,29.29,NW,311,2.7,3.6,100,0.00,,,0.31,VWS V14.01,2013-05-10 10:37:00,
2013-05-10 06:38:00,61.0,61.0,29.29,NW,311,2.7,2.7,100,0.00,,,0.31,VWS V14.01,2013-05-10 10:38:00,
2013-05-10 06:39:00,61.0,61.0,29.29,NNE,13,3.6,3.6,100,0.00,,,0.31,VWS V14.01,2013-05-10 10:39:00,
2013-05-10 06:40:00,61.0,61.0,29.29,NNE,13,3.6,3.6,100,0.00,,,0.31,VWS V14.01,2013-05-10 10:40:00,
2013-05-10 06:41:00,61.0,61.0,29.32,WNW,296,0.0,3.6,100,0.00,,,0.31,VWS V14.01,2013-05-10 10:41:00,
2013-05-10 06:42:00,61.0,61.0,29.32,WNW,296,0.0,0.0,100,0.00,,,0.31,VWS V14.01,2013-05-10 10:42:00,
2013-05-10 06:44:00,61.0,61.0,29.32,North,4,5.4,5.4,100,0.00,,,0.31,VWS V14.01,2013-05-10 10:44:00,
2013-05-10 06:46:00,61.0,61.0,29.32,NNW,346,2.7,5.4,100,0.00,,,0.31,VWS V14.01,2013-05-10 10:46:00,
2013-05-10 06:48:00,61.0,61.0,29.32,NW,322,0.0,3.1,100,0.00,,,0.31,VWS V14.01,2013-05-10 10:48:00,
2013-05-10 06:49:00,61.0,61.0,29.32,NW,322,0.0,0.0,100,0.00,,,0.31,VWS V14.01,2013-05-10 10:49:00,
2013-05-10 06:51:00,61.0,61.0,29.32,NNW,341,2.7,2.7,100,0.00,,,0.31,VWS V14.01,2013-05-10 10:51:00,
2013-05-10 06:52:00,61.2,61.2,29.32,NNW,341,2.7,2.7,100,0.00,,,0.31,VWS V14.01,2013-05-10 10:52:00,
2013-05-10 06:53:00,61.2,61.2,29.32,NNW,341,2.7,2.7,100,0.00,,,0.31,VWS V14.01,2013-05-10 10:53:00,
2013-05-10 06:54:00,61.2,61.2,29.32,North,0,0.0,0.0,100,0.00,,,0.31,VWS V14.01,2013-05-10 10:54:00,
2013-05-10 06:55:00,61.2,61.2,29.32,North,357,0.0,0.0,100,0.00,,,0.31,VWS V14.01,2013-05-10 10:55:00,
2013-05-10 06:56:00,61.2,61.2,29.32,North,357,0.0,0.0,100,0.00,,,0.31,VWS V14.01,2013-05-10 10:56:00,
2013-05-10 06:57:00,61.2,61.2,29.32,North,357,0.0,0.0,100,0.00,,,0.31,VWS V14.01,2013-05-10 10:57:00,
2013-05-10 06:58:00,61.2,61.2,29.32,North,0,4.0,4.0,100,0.00,,,0.31,VWS V14.01,2013-05-10 10:58:00,
2013-05-10 06:59:00,61.2,61.2,29.32,North,357,0.0,0.0,100,0.00,,,0.31,VWS V14.01,2013-05-10 10:59:00,
2013-05-10 07:00:00,61.3,61.3,29.32,NW,308,4.9,4.9,100,0.00,,,0.31,VWS V14.01,2013-05-10 11:00:00,
2013-05-10 07:01:00,61.3,61.3,29.32,NW,308,4.9,4.9,100,0.00,,,0.31,VWS V14.01,2013-05-10 11:01:00,
2013-05-10 07:02:00,61.3,61.3,29.32,NW,308,4.9,4.9,100,0.00,,,0.31,VWS V14.01,2013-05-10 11:02:00,
2013-05-10 07:03:00,61.3,61.3,29.32,NW,308,4.9,4.9,100,0.00,,,0.31,VWS V14.01,2013-05-10 11:03:00,
2013-05-10 07:04:00,61.3,61.3,29.32,NW,308,4.9,4.9,100,0.00,,,0.31,VWS V14.01,2013-05-10 11:04:00,
2013-05-10 07:06:00,61.3,61.3,29.32,North,353,0.0,4.9,100,0.00,,,0.31,VWS V14.01,2013-05-10 11:06:00,
2013-05-10 07:07:00,61.3,61.3,29.32,North,353,4.0,6.3,100,0.00,,,0.31,VWS V14.01,2013-05-10 11:07:00,
2013-05-10 07:08:00,61.5,61.5,29.32,North,353,3.1,3.1,100,0.00,,,0.31,VWS V14.01,2013-05-10 11:08:00,
2013-05-10 07:09:00,61.5,61.5,29.32,North,353,3.1,3.1,100,0.00,,,0.31,VWS V14.01,2013-05-10 11:09:00,
2013-05-10 07:11:00,61.5,61.5,29.32,North,357,3.1,3.1,100,0.00,,,0.31,VWS V14.01,2013-05-10 11:11:00,
2013-05-10 07:12:00,61.5,61.5,29.32,NNE,31,5.4,5.4,100,0.00,,,0.31,VWS V14.01,2013-05-10 11:12:00,
2013-05-10 07:14:00,61.5,61.5,29.32,NNW,327,4.0,5.4,100,0.00,,,0.31,VWS V14.01,2013-05-10 11:14:00,
2013-05-10 07:16:00,61.5,61.5,29.32,NNW,337,2.2,2.2,100,0.00,,,0.31,VWS V14.01,2013-05-10 11:16:00,
2013-05-10 07:18:00,61.7,61.7,29.32,North,4,3.6,3.6,100,0.00,,,0.31,VWS V14.01,2013-05-10 11:18:00,
2013-05-10 07:19:00,61.7,61.7,29.32,NNW,341,3.1,3.1,100,0.00,,,0.31,VWS V14.01,2013-05-10 11:19:00,
2013-05-10 07:21:00,61.7,61.7,29.32,North,7,2.7,4.0,100,0.00,,,0.31,VWS V14.01,2013-05-10 11:21:00,
2013-05-10 07:23:00,61.7,61.7,29.32,North,7,2.7,2.7,100,0.00,,,0.31,VWS V14.01,2013-05-10 11:23:00,
2013-05-10 07:24:00,61.7,61.7,29.32,North,7,2.7,2.7,100,0.00,,,0.31,VWS V14.01,2013-05-10 11:24:00,
2013-05-10 07:25:00,61.7,61.7,29.32,North,7,2.7,2.7,100,0.00,,,0.31,VWS V14.01,2013-05-10 11:25:00,
2013-05-10 07:26:00,61.9,61.9,29.32,North,0,2.2,2.2,100,0.00,,,0.31,VWS V14.01,2013-05-10 11:26:00,
2013-05-10 07:27:00,61.9,61.9,29.32,North,0,2.2,2.2,100,0.00,,,0.31,VWS V14.01,2013-05-10 11:27:00,
2013-05-10 07:28:00,61.9,61.9,29.32,NNW,341,3.1,3.1,100,0.00,,,0.31,VWS V14.01,2013-05-10 11:28:00,
2013-05-10 07:29:00,61.9,61.9,29.32,North,357,4.9,4.9,100,0.00,,,0.31,VWS V14.01,2013-05-10 11:29:00,
2013-05-10 07:30:00,61.9,61.9,29.32,North,357,4.9,4.9,100,0.00,,,0.31,VWS V14.01,2013-05-10 11:30:00,
2013-05-10 07:31:00,61.9,61.9,29.32,North,357,5.4,5.4,100,0.00,,,0.31,VWS V14.01,2013-05-10 11:31:00,
2013-05-10 07:32:00,61.9,61.9,29.32,North,357,5.4,5.4,100,0.00,,,0.31,VWS V14.01,2013-05-10 11:32:00,
2013-05-10 07:33:00,61.9,61.9,29.32,North,1,4.9,4.9,100,0.00,,,0.31,VWS V14.01,2013-05-10 11:33:00,
2013-05-10 07:35:00,61.9,61.9,29.32,North,353,4.0,4.0,100,0.00,,,0.31,VWS V14.01,2013-05-10 11:35:00,
2013-05-10 07:36:00,61.9,61.9,29.32,NNW,333,0.0,4.0,100,0.00,,,0.31,VWS V14.01,2013-05-10 11:36:00,
2013-05-10 07:37:00,61.9,61.9,29.32,NNW,333,0.0,0.0,100,0.00,,,0.31,VWS V14.01,2013-05-10 11:37:00,
2013-05-10 07:38:00,61.9,61.9,29.32,NNW,333,0.0,0.0,100,0.00,,,0.31,VWS V14.01,2013-05-10 11:38:00,
2013-05-10 07:40:00,61.9,61.9,29.32,North,353,3.6,4.0,100,0.00,,,0.31,VWS V14.01,2013-05-10 11:40:00,
2013-05-10 07:42:00,61.9,61.9,29.32,North,357,0.0,3.6,100,0.00,,,0.31,VWS V14.01,2013-05-10 11:42:00,
2013-05-10 07:43:00,61.9,61.9,29.32,North,353,0.0,0.0,100,0.00,,,0.31,VWS V14.01,2013-05-10 11:43:00,
2013-05-10 07:45:00,61.9,61.9,29.32,North,353,0.0,0.0,100,0.00,,,0.31,VWS V14.01,2013-05-10 11:45:00,
2013-05-10 07:46:00,61.9,61.9,29.32,North,353,0.0,0.0,100,0.00,,,0.31,VWS V14.01,2013-05-10 11:46:00,
2013-05-10 07:47:00,61.9,61.9,29.32,North,353,0.0,0.0,100,0.00,,,0.31,VWS V14.01,2013-05-10 11:47:00,
2013-05-10 07:49:00,61.9,61.9,29.32,North,4,0.0,5.4,100,0.00,,,0.31,VWS V14.01,2013-05-10 11:49:00,
2013-05-10 07:51:00,61.9,61.9,29.32,North,5,0.0,0.0,100,0.00,,,0.31,VWS V14.01,2013-05-10 11:51:00,
2013-05-10 07:52:00,61.9,61.9,29.32,North,357,2.7,3.6,100,0.00,,,0.31,VWS V14.01,2013-05-10 11:52:00,
2013-05-10 07:53:00,61.9,61.9,29.32,North,357,2.7,3.6,100,0.00,,,0.31,VWS V14.01,2013-05-10 11:53:00,
2013-05-10 07:54:00,61.9,61.9,29.32,NNW,348,3.1,3.1,100,0.00,,,0.31,VWS V14.01,2013-05-10 11:54:00,
2013-05-10 07:56:00,61.9,61.9,29.32,North,4,5.8,8.1,100,0.00,,,0.31,VWS V14.01,2013-05-10 11:56:00,
2013-05-10 07:57:00,61.9,61.9,29.32,NNE,14,3.6,3.6,100,0.00,,,0.31,VWS V14.01,2013-05-10 11:57:00,
2013-05-10 07:58:00,61.9,61.9,29.32,NNE,14,3.6,3.6,100,0.00,,,0.31,VWS V14.01,2013-05-10 11:58:00,
2013-05-10 07:59:00,61.9,61.9,29.32,NNE,14,3.6,3.6,100,0.00,,,0.31,VWS V14.01,2013-05-10 11:59:00,
2013-05-10 08:01:00,61.7,61.7,29.32,North,0,3.1,3.1,100,0.00,,,0.31,VWS V14.01,2013-05-10 12:01:00,
2013-05-10 08:02:00,61.7,61.7,29.32,North,1,3.6,3.6,100,0.00,,,0.31,VWS V14.01,2013-05-10 12:02:00,
2013-05-10 08:03:00,61.7,61.7,29.32,WNW,297,7.2,7.2,100,0.00,,,0.31,VWS V14.01,2013-05-10 12:03:00,
2013-05-10 08:04:00,61.7,61.7,29.32,WNW,297,7.2,7.2,100,0.00,,,0.31,VWS V14.01,2013-05-10 12:04:00,
2013-05-10 08:06:00,61.7,61.7,29.32,North,5,3.6,3.6,100,0.00,,,0.31,VWS V14.01,2013-05-10 12:06:00,
2013-05-10 08:07:00,61.7,61.7,29.32,North,5,3.6,3.6,100,0.00,,,0.31,VWS V14.01,2013-05-10 12:07:00,
2013-05-10 08:09:00,61.7,61.7,29.32,North,5,3.6,3.6,100,0.00,,,0.31,VWS V14.01,2013-05-10 12:09:00,
2013-05-10 08:11:00,61.7,61.7,29.32,North,357,5.4,5.4,100,0.00,,,0.31,VWS V14.01,2013-05-10 12:11:00,
2013-05-10 08:12:00,61.7,61.7,29.32,North,357,5.4,5.4,100,0.00,,,0.31,VWS V14.01,2013-05-10 12:12:00,
2013-05-10 08:14:00,61.7,61.7,29.32,North,353,3.1,5.4,100,0.00,,,0.31,VWS V14.01,2013-05-10 12:14:00,
2013-05-10 08:17:00,61.7,61.7,29.32,North,357,7.6,7.6,100,0.00,,,0.31,VWS V14.01,2013-05-10 12:17:00,
2013-05-10 08:18:00,61.7,61.7,29.32,North,357,3.6,3.6,100,0.00,,,0.31,VWS V14.01,2013-05-10 12:18:00,
2013-05-10 08:19:00,61.7,61.7,29.32,North,357,2.2,3.6,100,0.00,,,0.31,VWS V14.01,2013-05-10 12:19:00,
2013-05-10 08:22:00,61.7,61.7,29.32,North,357,2.7,2.7,100,0.00,,,0.31,VWS V14.01,2013-05-10 12:22:00,
2013-05-10 08:23:00,61.7,61.7,29.32,North,5,6.7,6.7,100,0.00,,,0.31,VWS V14.01,2013-05-10 12:23:00,
2013-05-10 08:24:00,61.7,61.7,29.32,North,353,0.0,6.7,100,0.00,,,0.31,VWS V14.01,2013-05-10 12:24:00,
2013-05-10 08:27:00,61.7,61.7,29.32,North,357,3.6,3.6,100,0.00,,,0.31,VWS V14.01,2013-05-10 12:27:00,
2013-05-10 08:28:00,61.7,61.7,29.32,North,3,5.8,5.8,100,0.00,,,0.31,VWS V14.01,2013-05-10 12:28:00,
2013-05-10 08:29:00,61.7,61.7,29.32,North,5,3.6,5.8,100,0.00,,,0.31,VWS V14.01,2013-05-10 12:29:00,
2013-05-10 08:32:00,61.7,61.7,29.32,NNW,333,3.1,5.4,100,0.00,,,0.31,VWS V14.01,2013-05-10 12:32:00,
2013-05-10 08:33:00,61.7,61.7,29.32,NNW,333,3.1,5.4,100,0.00,,,0.31,VWS V14.01,2013-05-10 12:33:00,
2013-05-10 08:34:00,61.7,61.7,29.32,NNW,333,3.1,3.1,100,0.00,,,0.31,VWS V14.01,2013-05-10 12:34:00,
2013-05-10 08:37:00,61.7,61.7,29.32,North,0,3.1,3.1,100,0.00,,,0.31,VWS V14.01,2013-05-10 12:37:00,
2013-05-10 08:38:00,61.7,61.7,29.32,North,0,3.1,3.1,100,0.00,,,0.31,VWS V14.01,2013-05-10 12:38:00,
2013-05-10 08:39:00,61.7,61.7,29.32,NNE,19,3.6,3.6,100,0.00,,,0.31,VWS V14.01,2013-05-10 12:39:00,
2013-05-10 08:42:00,61.7,61.7,29.32,North,3,4.0,4.0,100,0.00,,,0.31,VWS V14.01,2013-05-10 12:42:00,
2013-05-10 08:43:00,61.7,61.7,29.32,NNE,33,3.6,3.6,100,0.00,,,0.31,VWS V14.01,2013-05-10 12:43:00,
2013-05-10 08:44:00,61.7,61.7,29.32,NNE,33,3.6,3.6,100,0.00,,,0.31,VWS V14.01,2013-05-10 12:44:00,
2013-05-10 08:47:00,61.9,61.9,29.32,North,5,3.1,3.1,100,0.00,,,0.31,VWS V14.01,2013-05-10 12:47:00,
2013-05-10 08:48:00,61.9,61.9,29.32,North,5,2.2,3.1,100,0.00,,,0.31,VWS V14.01,2013-05-10 12:48:00,
2013-05-10 08:49:00,61.9,61.9,29.32,NNE,15,2.7,3.1,100,0.00,,,0.31,VWS V14.01,2013-05-10 12:49:00,
2013-05-10 08:50:00,61.9,61.9,29.32,North,357,3.1,3.1,100,0.00,,,0.31,VWS V14.01,2013-05-10 12:50:00,
2013-05-10 08:52:00,61.9,61.9,29.32,North,357,3.1,3.1,100,0.00,,,0.31,VWS V14.01,2013-05-10 12:52:00,
2013-05-10 08:53:00,61.9,61.9,29.32,North,357,3.1,3.1,100,0.00,,,0.31,VWS V14.01,2013-05-10 12:53:00,
2013-05-10 08:54:00,61.9,61.9,29.32,North,357,2.2,3.1,100,0.00,,,0.31,VWS V14.01,2013-05-10 12:54:00,
2013-05-10 08:55:00,61.9,61.9,29.32,North,357,2.2,3.1,100,0.00,,,0.31,VWS V14.01,2013-05-10 12:55:00,
2013-05-10 08:57:00,61.9,61.9,29.32,North,7,2.2,2.2,100,0.00,,,0.31,VWS V14.01,2013-05-10 12:57:00,
2013-05-10 08:58:00,61.9,61.9,29.32,North,357,2.7,2.7,100,0.00,,,0.31,VWS V14.01,2013-05-10 12:58:00,
2013-05-10 08:59:00,61.9,61.9,29.32,North,357,2.7,2.7,100,0.00,,,0.31,VWS V14.01,2013-05-10 12:59:00,
2013-05-10 09:00:00,61.9,61.9,29.32,North,357,2.7,2.7,100,0.00,,,0.31,VWS V14.01,2013-05-10 13:00:00,
2013-05-10 09:02:00,62.1,62.1,29.32,North,0,4.0,4.0,100,0.00,,,0.31,VWS V14.01,2013-05-10 13:02:00,
2013-05-10 09:04:00,62.1,62.1,29.32,North,0,4.0,4.0,100,0.00,,,0.31,VWS V14.01,2013-05-10 13:04:00,
2013-05-10 09:05:00,62.1,62.1,29.32,North,0,4.0,4.0,100,0.00,,,0.31,VWS V14.01,2013-05-10 13:05:00,
2013-05-10 09:07:00,62.1,62.1,29.32,North,9,3.6,3.6,100,0.00,,,0.31,VWS V14.01,2013-05-10 13:07:00,
2013-05-10 09:09:00,62.1,62.1,29.32,North,9,3.6,3.6,100,0.00,,,0.31,VWS V14.01,2013-05-10 13:09:00,
2013-05-10 09:10:00,62.4,62.4,29.32,North,6,5.8,5.8,100,0.00,,,0.31,VWS V14.01,2013-05-10 13:10:00,
2013-05-10 09:12:00,62.4,62.4,29.32,North,3,2.7,2.7,100,0.00,,,0.31,VWS V14.01,2013-05-10 13:12:00,
2013-05-10 09:14:00,62.4,62.4,29.32,NNE,15,6.3,6.3,100,0.00,,,0.31,VWS V14.01,2013-05-10 13:14:00,
2013-05-10 09:15:00,62.4,62.4,29.32,North,4,2.7,2.7,100,0.00,,,0.31,VWS V14.01,2013-05-10 13:15:00,
2013-05-10 09:17:00,62.4,62.4,29.32,NNE,33,2.7,2.7,100,0.00,,,0.31,VWS V14.01,2013-05-10 13:17:00,
2013-05-10 09:19:00,62.4,62.4,29.32,NNE,12,4.5,4.5,100,0.00,,,0.31,VWS V14.01,2013-05-10 13:19:00,
2013-05-10 09:20:00,62.4,62.4,29.32,North,11,0.0,4.5,100,0.00,,,0.31,VWS V14.01,2013-05-10 13:20:00,
2013-05-10 09:23:00,62.4,62.4,29.32,NNE,24,0.0,2.7,100,0.00,,,0.31,VWS V14.01,2013-05-10 13:23:00,
2013-05-10 09:24:00,62.4,62.4,29.32,NNE,24,0.0,0.0,100,0.00,,,0.31,VWS V14.01,2013-05-10 13:24:00,
2013-05-10 09:25:00,62.4,62.4,29.32,NNE,24,0.0,0.0,100,0.00,,,0.31,VWS V14.01,2013-05-10 13:25:00,
2013-05-10 09:28:00,63.0,63.0,29.32,North,7,4.0,4.0,100,0.00,,,0.31,VWS V14.01,2013-05-10 13:28:00,
2013-05-10 09:29:00,63.0,63.0,29.32,North,7,4.0,4.0,100,0.00,,,0.31,VWS V14.01,2013-05-10 13:29:00,
2013-05-10 09:30:00,63.0,63.0,29.32,NNE,12,0.0,0.0,100,0.00,,,0.31,VWS V14.01,2013-05-10 13:30:00,
2013-05-10 09:33:00,63.0,63.0,29.32,North,1,2.2,2.2,100,0.00,,,0.31,VWS V14.01,2013-05-10 13:33:00,
2013-05-10 09:34:00,63.0,63.0,29.32,NNE,17,0.0,3.6,100,0.00,,,0.31,VWS V14.01,2013-05-10 13:34:00,
2013-05-10 09:35:00,63.0,63.0,29.32,NNE,17,0.0,0.0,100,0.00,,,0.31,VWS V14.01,2013-05-10 13:35:00,
2013-05-10 09:38:00,63.0,63.0,29.32,North,5,0.0,0.0,100,0.00,,,0.31,VWS V14.01,2013-05-10 13:38:00,
2013-05-10 09:39:00,63.0,63.0,29.32,NE,39,2.7,2.7,100,0.00,,,0.31,VWS V14.01,2013-05-10 13:39:00,
2013-05-10 09:40:00,63.0,63.0,29.32,North,4,4.0,4.0,100,0.00,,,0.31,VWS V14.01,2013-05-10 13:40:00,
2013-05-10 09:41:00,63.0,63.0,29.32,North,4,2.7,4.0,100,0.00,,,0.31,VWS V14.01,2013-05-10 13:41:00,
2013-05-10 09:43:00,63.0,63.0,29.32,North,4,3.6,3.6,100,0.00,,,0.31,VWS V14.01,2013-05-10 13:43:00,
2013-05-10 09:44:00,63.0,63.0,29.32,North,4,3.6,3.6,100,0.00,,,0.31,VWS V14.01,2013-05-10 13:44:00,
2013-05-10 09:45:00,63.0,63.0,29.32,North,4,3.6,3.6,100,0.00,,,0.31,VWS V14.01,2013-05-10 13:45:00,
2013-05-10 09:46:00,63.0,63.0,29.32,North,4,3.6,3.6,100,0.00,,,0.31,VWS V14.01,2013-05-10 13:46:00,
2013-05-10 09:48:00,63.0,63.0,29.32,NNW,345,5.4,5.4,100,0.00,,,0.31,VWS V14.01,2013-05-10 13:48:00,
2013-05-10 09:50:00,63.1,63.1,29.32,North,0,4.9,5.4,100,0.00,,,0.31,VWS V14.01,2013-05-10 13:50:00,
2013-05-10 09:51:00,63.1,63.1,29.32,North,0,4.9,4.9,100,0.00,,,0.31,VWS V14.01,2013-05-10 13:51:00,
2013-05-10 09:53:00,63.3,63.0,29.32,North,0,4.9,4.9,99,0.00,,,0.31,VWS V14.01,2013-05-10 13:53:00,
2013-05-10 09:55:00,63.3,63.0,29.32,North,6,2.7,2.7,99,0.00,,,0.31,VWS V14.01,2013-05-10 13:55:00,
2013-05-10 09:56:00,63.3,63.0,29.32,North,353,3.6,3.6,99,0.00,,,0.31,VWS V14.01,2013-05-10 13:56:00,
2013-05-10 09:59:00,63.3,63.0,29.32,North,357,4.0,4.0,99,0.00,,,0.31,VWS V14.01,2013-05-10 13:59:00,
2013-05-10 10:00:00,63.3,63.0,29.32,North,357,4.0,4.0,99,0.00,,,0.31,VWS V14.01,2013-05-10 14:00:00,
2013-05-10 10:01:00,63.3,63.0,29.32,NNE,13,4.0,4.0,99,0.00,,,0.31,VWS V14.01,2013-05-10 14:01:00,
2013-05-10 10:04:00,63.5,61.8,29.32,North,0,4.0,4.0,94,0.00,,,0.31,VWS V14.01,2013-05-10 14:04:00,
2013-05-10 10:05:00,63.5,61.8,29.32,North,7,4.9,4.9,94,0.00,,,0.31,VWS V14.01,2013-05-10 14:05:00,
2013-05-10 10:06:00,63.3,61.6,29.32,North,4,3.1,3.1,94,0.00,,,0.31,VWS V14.01,2013-05-10 14:06:00,
2013-05-10 10:09:00,63.3,61.6,29.29,North,357,4.5,4.5,94,0.00,,,0.31,VWS V14.01,2013-05-10 14:09:00,
2013-05-10 10:10:00,63.3,61.6,29.29,North,3,3.1,4.5,94,0.00,,,0.31,VWS V14.01,2013-05-10 14:10:00,
2013-05-10 10:11:00,63.3,61.6,29.29,North,3,3.1,3.1,94,0.00,,,0.31,VWS V14.01,2013-05-10 14:11:00,
2013-05-10 10:14:00,63.3,61.3,29.29,NNE,23,4.0,4.0,93,0.00,,,0.31,VWS V14.01,2013-05-10 14:14:00,
2013-05-10 10:15:00,63.3,61.3,29.29,North,357,3.6,3.6,93,0.00,,,0.31,VWS V14.01,2013-05-10 14:15:00,
2013-05-10 10:16:00,63.3,61.3,29.29,NNE,12,5.8,6.3,93,0.00,,,0.31,VWS V14.01,2013-05-10 14:16:00,
2013-05-10 10:17:00,63.3,61.3,29.29,NNE,12,5.8,6.3,93,0.00,,,0.31,VWS V14.01,2013-05-10 14:17:00,
2013-05-10 10:19:00,63.3,61.0,29.29,North,1,4.9,4.9,92,0.00,,,0.31,VWS V14.01,2013-05-10 14:19:00,
2013-05-10 10:20:00,63.3,61.0,29.29,North,1,4.9,4.9,92,0.00,,,0.31,VWS V14.01,2013-05-10 14:20:00,
2013-05-10 10:21:00,63.3,61.0,29.29,North,1,4.9,4.9,92,0.00,,,0.31,VWS V14.01,2013-05-10 14:21:00,
2013-05-10 10:22:00,63.3,61.0,29.29,North,1,4.9,4.9,92,0.00,,,0.31,VWS V14.01,2013-05-10 14:22:00,
2013-05-10 10:24:00,63.3,61.0,29.29,North,10,5.4,5.4,92,0.00,,,0.31,VWS V14.01,2013-05-10 14:24:00,
2013-05-10 10:26:00,63.3,61.0,29.29,North,10,5.4,5.4,92,0.00,,,0.31,VWS V14.01,2013-05-10 14:26:00,
2013-05-10 10:27:00,63.5,61.4,29.29,North,8,7.2,7.2,93,0.00,,,0.31,VWS V14.01,2013-05-10 14:27:00,
2013-05-10 10:29:00,63.5,61.4,29.29,North,4,6.3,6.3,93,0.00,,,0.31,VWS V14.01,2013-05-10 14:29:00,
2013-05-10 10:31:00,63.5,61.4,29.29,North,0,3.6,6.3,93,0.00,,,0.31,VWS V14.01,2013-05-10 14:31:00,
2013-05-10 10:32:00,63.5,61.4,29.29,NNW,330,5.4,5.4,93,0.00,,,0.31,VWS V14.01,2013-05-10 14:32:00,
2013-05-10 10:34:00,63.5,61.4,29.32,North,357,4.0,4.0,93,0.00,,,0.31,VWS V14.01,2013-05-10 14:34:00,
2013-05-10 10:36:00,63.5,61.1,29.32,North,8,5.8,5.8,92,0.00,,,0.31,VWS V14.01,2013-05-10 14:36:00,
2013-05-10 10:37:00,63.5,61.1,29.32,North,357,3.6,5.8,92,0.00,,,0.31,VWS V14.01,2013-05-10 14:37:00,
2013-05-10 10:39:00,63.5,61.1,29.32,North,10,5.8,5.8,92,0.00,,,0.31,VWS V14.01,2013-05-10 14:39:00,
2013-05-10 10:41:00,63.5,61.1,29.32,North,10,0.0,0.0,92,0.00,,,0.31,VWS V14.01,2013-05-10 14:41:00,
2013-05-10 10:42:00,63.7,61.0,29.32,North,0,2.7,2.7,91,0.00,,,0.31,VWS V14.01,2013-05-10 14:42:00,
2013-05-10 10:43:00,63.7,61.0,29.32,North,0,2.7,2.7,91,0.00,,,0.31,VWS V14.01,2013-05-10 14:43:00,
2013-05-10 10:45:00,63.9,61.2,29.32,North,6,2.7,2.7,91,0.00,,,0.31,VWS V14.01,2013-05-10 14:45:00,
2013-05-10 10:46:00,63.9,61.2,29.32,North,6,2.7,2.7,91,0.00,,,0.31,VWS V14.01,2013-05-10 14:46:00,
2013-05-10 10:47:00,63.9,61.2,29.32,North,6,2.7,2.7,91,0.00,,,0.31,VWS V14.01,2013-05-10 14:47:00,
2013-05-10 10:48:00,63.9,61.2,29.32,North,6,2.7,2.7,91,0.00,,,0.31,VWS V14.01,2013-05-10 14:48:00,
2013-05-10 10:50:00,64.2,60.9,29.32,North,4,4.0,4.0,89,0.00,,,0.31,VWS V14.01,2013-05-10 14:50:00,
2013-05-10 10:51:00,64.2,60.9,29.32,North,357,3.6,4.0,89,0.00,,,0.31,VWS V14.01,2013-05-10 14:51:00,
2013-05-10 10:52:00,64.2,60.9,29.32,North,357,3.6,3.6,89,0.00,,,0.31,VWS V14.01,2013-05-10 14:52:00,
2013-05-10 10:53:00,64.2,60.9,29.32,North,357,3.6,3.6,89,0.00,,,0.31,VWS V14.01,2013-05-10 14:53:00,
2013-05-10 10:56:00,64.8,61.1,29.32,North,357,0.0,0.0,88,0.00,,,0.31,VWS V14.01,2013-05-10 14:56:00,
2013-05-10 10:58:00,64.8,61.1,29.32,NNE,15,2.7,2.7,88,0.00,,,0.31,VWS V14.01,2013-05-10 14:58:00,
2013-05-10 10:59:00,64.8,61.1,29.32,North,0,3.1,3.1,88,0.00,,,0.31,VWS V14.01,2013-05-10 14:59:00,
2013-05-10 11:01:00,65.1,60.8,29.32,NNW,344,5.8,5.8,86,0.00,,,0.31,VWS V14.01,2013-05-10 15:01:00,
2013-05-10 11:03:00,65.1,60.8,29.32,North,353,4.0,4.0,86,0.00,,,0.31,VWS V14.01,2013-05-10 15:03:00,
2013-05-10 11:04:00,65.1,60.8,29.32,North,353,4.0,4.0,86,0.00,,,0.31,VWS V14.01,2013-05-10 15:04:00,
2013-05-10 11:06:00,65.1,60.8,29.32,North,5,3.6,4.0,86,0.00,,,0.31,VWS V14.01,2013-05-10 15:06:00,
2013-05-10 11:08:00,65.1,60.8,29.32,North,5,5.4,5.4,86,0.00,,,0.31,VWS V14.01,2013-05-10 15:08:00,
2013-05-10 11:09:00,65.1,60.8,29.32,North,5,5.4,5.4,86,0.00,,,0.31,VWS V14.01,2013-05-10 15:09:00,
2013-05-10 11:11:00,65.7,60.7,29.32,North,2,0.0,0.0,84,0.00,,,0.31,VWS V14.01,2013-05-10 15:11:00,
2013-05-10 11:12:00,65.7,60.7,29.32,North,0,4.9,4.9,84,0.00,,,0.31,VWS V14.01,2013-05-10 15:12:00,
2013-05-10 11:13:00,65.7,60.7,29.32,NNW,338,4.0,4.0,84,0.00,,,0.31,VWS V14.01,2013-05-10 15:13:00,
2013-05-10 11:14:00,65.7,60.7,29.32,NNW,338,4.0,4.0,84,0.00,,,0.31,VWS V14.01,2013-05-10 15:14:00,
2013-05-10 11:16:00,65.7,60.4,29.35,North,6,2.7,2.7,83,0.00,,,0.31,VWS V14.01,2013-05-10 15:16:00,
2013-05-10 11:17:00,65.7,60.4,29.35,North,6,2.7,2.7,83,0.00,,,0.31,VWS V14.01,2013-05-10 15:17:00,
2013-05-10 11:18:00,65.7,60.4,29.35,North,6,2.7,2.7,83,0.00,,,0.31,VWS V14.01,2013-05-10 15:18:00,
2013-05-10 11:19:00,65.7,60.4,29.35,North,6,2.7,2.7,83,0.00,,,0.31,VWS V14.01,2013-05-10 15:19:00,
2013-05-10 11:21:00,65.7,60.0,29.35,North,11,3.6,3.6,82,0.00,,,0.31,VWS V14.01,2013-05-10 15:21:00,
2013-05-10 11:22:00,65.7,60.0,29.35,North,11,3.6,3.6,82,0.00,,,0.31,VWS V14.01,2013-05-10 15:22:00,
2013-05-10 11:23:00,65.8,60.5,29.35,North,11,4.0,4.0,83,0.00,,,0.31,VWS V14.01,2013-05-10 15:23:00,
2013-05-10 11:24:00,65.8,60.5,29.35,North,357,3.1,4.0,83,0.00,,,0.31,VWS V14.01,2013-05-10 15:24:00,
2013-05-10 11:26:00,65.8,60.5,29.35,NNE,12,2.7,4.0,83,0.00,,,0.31,VWS V14.01,2013-05-10 15:26:00,
2013-05-10 11:27:00,65.8,60.5,29.35,NNE,12,2.7,4.0,83,0.00,,,0.31,VWS V14.01,2013-05-10 15:27:00,
2013-05-10 11:28:00,66.2,60.9,29.32,NNE,12,2.7,2.7,83,0.00,,,0.31,VWS V14.01,2013-05-10 15:28:00,
2013-05-10 11:29:00,66.2,60.9,29.32,NNE,12,2.7,2.7,83,0.00,,,0.31,VWS V14.01,2013-05-10 15:29:00,
2013-05-10 11:32:00,66.2,60.9,29.32,NNE,14,2.7,2.7,83,0.00,,,0.31,VWS V14.01,2013-05-10 15:32:00,
2013-05-10 11:34:00,66.2,60.9,29.32,North,5,3.1,4.9,83,0.00,,,0.31,VWS V14.01,2013-05-10 15:34:00,
2013-05-10 11:37:00,66.0,60.0,29.32,North,10,3.6,3.6,81,0.00,,,0.31,VWS V14.01,2013-05-10 15:37:00,
2013-05-10 11:39:00,66.0,60.0,29.32,North,7,5.4,5.4,81,0.00,,,0.31,VWS V14.01,2013-05-10 15:39:00,
2013-05-10 11:42:00,66.0,60.0,29.32,NNE,12,3.6,3.6,81,0.00,,,0.31,VWS V14.01,2013-05-10 15:42:00,
2013-05-10 11:44:00,66.0,60.0,29.32,North,357,0.0,0.0,81,0.00,,,0.31,VWS V14.01,2013-05-10 15:44:00,
2013-05-10 11:47:00,65.7,59.7,29.32,NW,318,4.9,5.4,81,0.00,,,0.31,VWS V14.01,2013-05-10 15:47:00,
2013-05-10 11:49:00,65.7,59.7,29.32,NE,54,6.3,6.3,81,0.00,,,0.31,VWS V14.01,2013-05-10 15:49:00,
2013-05-10 11:50:00,65.7,59.7,29.32,NE,54,6.3,6.3,81,0.00,,,0.31,VWS V14.01,2013-05-10 15:50:00,
2013-05-10 11:52:00,65.7,59.7,29.32,NNW,330,4.9,4.9,81,0.00,,,0.31,VWS V14.01,2013-05-10 15:52:00,
2013-05-10 11:54:00,65.7,59.7,29.32,NNE,20,4.9,4.9,81,0.00,,,0.31,VWS V14.01,2013-05-10 15:54:00,
2013-05-10 11:55:00,65.7,59.7,29.32,NNE,20,4.9,4.9,81,0.00,,,0.31,VWS V14.01,2013-05-10 15:55:00,
2013-05-10 11:57:00,65.5,59.5,29.32,North,11,4.9,4.9,81,0.00,,,0.31,VWS V14.01,2013-05-10 15:57:00,
2013-05-10 11:59:00,65.5,59.5,29.32,North,4,3.6,3.6,81,0.00,,,0.31,VWS V14.01,2013-05-10 15:59:00,
2013-05-10 12:00:00,65.5,59.5,29.32,North,4,3.6,3.6,81,0.00,,,0.31,VWS V14.01,2013-05-10 16:00:00,
2013-05-10 12:02:00,65.7,60.0,29.32,North,0,2.7,2.7,82,0.00,,,0.31,VWS V14.01,2013-05-10 16:02:00,
2013-05-10 12:03:00,65.7,60.0,29.32,North,0,2.7,2.7,82,0.00,,,0.31,VWS V14.01,2013-05-10 16:03:00,
2013-05-10 12:04:00,65.7,60.0,29.32,North,0,2.7,2.7,82,0.00,,,0.31,VWS V14.01,2013-05-10 16:04:00,
2013-05-10 12:05:00,65.7,60.0,29.32,North,2,3.6,3.6,82,0.00,,,0.31,VWS V14.01,2013-05-10 16:05:00,
2013-05-10 12:08:00,65.7,60.0,29.32,North,8,5.8,5.8,82,0.00,,,0.31,VWS V14.01,2013-05-10 16:08:00,
2013-05-10 12:10:00,65.8,60.2,29.32,North,8,5.8,5.8,82,0.00,,,0.31,VWS V14.01,2013-05-10 16:10:00,
2013-05-10 12:13:00,65.8,60.2,29.32,North,8,5.8,5.8,82,0.00,,,0.31,VWS V14.01,2013-05-10 16:13:00,
2013-05-10 12:15:00,65.8,60.2,29.32,NNE,17,2.2,2.2,82,0.00,,,0.31,VWS V14.01,2013-05-10 16:15:00,
2013-05-10 12:18:00,65.8,60.2,29.32,North,8,3.1,4.0,82,0.00,,,0.31,VWS V14.01,2013-05-10 16:18:00,
2013-05-10 12:20:00,65.8,60.2,29.32,NE,51,2.2,2.2,82,0.00,,,0.31,VWS V14.01,2013-05-10 16:20:00,
2013-05-10 12:21:00,65.8,60.2,29.32,NE,51,2.2,2.2,82,0.00,,,0.31,VWS V14.01,2013-05-10 16:21:00,
2013-05-10 12:23:00,65.5,59.5,29.32,NE,51,0.0,0.0,81,0.00,,,0.31,VWS V14.01,2013-05-10 16:23:00,
2013-05-10 12:25:00,65.5,59.5,29.32,North,11,3.1,3.1,81,0.00,,,0.31,VWS V14.01,2013-05-10 16:25:00,
2013-05-10 12:26:00,65.5,59.5,29.32,North,11,3.1,3.1,81,0.00,,,0.31,VWS V14.01,2013-05-10 16:26:00,
2013-05-10 12:28:00,65.7,59.7,29.32,North,6,0.0,0.0,81,0.00,,,0.31,VWS V14.01,2013-05-10 16:28:00,
2013-05-10 12:29:00,65.7,59.7,29.32,North,3,3.1,3.1,81,0.00,,,0.31,VWS V14.01,2013-05-10 16:29:00,
2013-05-10 12:31:00,65.7,60.0,29.32,North,8,3.1,3.1,82,0.00,,,0.31,VWS V14.01,2013-05-10 16:31:00,
2013-05-10 12:34:00,65.8,60.2,29.32,North,1,4.0,4.0,82,0.00,,,0.31,VWS V14.01,2013-05-10 16:34:00,
2013-05-10 12:36:00,65.8,60.2,29.32,North,3,0.0,4.0,82,0.00,,,0.31,VWS V14.01,2013-05-10 16:36:00,
2013-05-10 12:39:00,66.2,60.2,29.32,North,357,2.2,2.2,81,0.00,,,0.31,VWS V14.01,2013-05-10 16:39:00,
2013-05-10 12:41:00,66.2,60.2,29.32,North,357,0.0,0.0,81,0.00,,,0.31,VWS V14.01,2013-05-10 16:41:00,
2013-05-10 12:44:00,66.4,60.4,29.32,North,5,3.1,3.1,81,0.00,,,0.31,VWS V14.01,2013-05-10 16:44:00,
2013-05-10 12:46:00,66.4,60.4,29.32,North,6,0.0,0.0,81,0.00,,,0.31,VWS V14.01,2013-05-10 16:46:00,
2013-05-10 12:49:00,66.4,60.4,29.32,NE,48,4.0,4.0,81,0.00,,,0.31,VWS V14.01,2013-05-10 16:49:00,
2013-05-10 12:51:00,66.4,60.4,29.32,North,4,2.2,2.2,81,0.00,,,0.31,VWS V14.01,2013-05-10 16:51:00,
2013-05-10 12:55:00,66.4,60.0,29.32,NE,47,4.0,4.0,80,0.00,,,0.31,VWS V14.01,2013-05-10 16:55:00,
2013-05-10 12:56:00,66.4,59.7,29.32,NE,54,3.6,4.0,79,0.00,,,0.31,VWS V14.01,2013-05-10 16:56:00,
2013-05-10 13:00:00,66.0,59.3,29.32,ENE,66,5.8,5.8,79,0.00,,,0.31,VWS V14.01,2013-05-10 17:00:00,
2013-05-10 13:01:00,66.0,59.3,29.32,ENE,66,5.8,5.8,79,0.00,,,0.31,VWS V14.01,2013-05-10 17:01:00,
2013-05-10 13:02:00,66.0,59.3,29.32,ENE,66,5.8,5.8,79,0.00,,,0.31,VWS V14.01,2013-05-10 17:02:00,
2013-05-10 13:05:00,65.1,58.5,29.32,NE,55,3.6,3.6,79,0.00,,,0.31,VWS V14.01,2013-05-10 17:05:00,
2013-05-10 13:06:00,65.1,58.5,29.32,NE,48,6.3,6.3,79,0.00,,,0.31,VWS V14.01,2013-05-10 17:06:00,
2013-05-10 13:07:00,65.1,58.5,29.32,ENE,71,4.0,4.0,79,0.00,,,0.31,VWS V14.01,2013-05-10 17:07:00,
2013-05-10 13:10:00,65.1,58.5,29.32,ENE,67,5.8,5.8,79,0.00,,,0.31,VWS V14.01,2013-05-10 17:10:00,
2013-05-10 13:11:00,64.4,58.5,29.32,ENE,67,5.8,5.8,81,0.00,,,0.31,VWS V14.01,2013-05-10 17:11:00,
2013-05-10 13:12:00,64.4,58.5,29.32,ENE,59,2.7,2.7,81,0.00,,,0.31,VWS V14.01,2013-05-10 17:12:00,
2013-05-10 13:15:00,64.4,58.5,29.35,ENE,59,2.7,2.7,81,0.00,,,0.31,VWS V14.01,2013-05-10 17:15:00,
2013-05-10 13:16:00,64.4,58.5,29.35,ENE,62,3.1,3.1,81,0.00,,,0.31,VWS V14.01,2013-05-10 17:16:00,
2013-05-10 13:17:00,64.4,58.5,29.35,ENE,63,4.0,4.0,81,0.00,,,0.31,VWS V14.01,2013-05-10 17:17:00,
2013-05-10 13:20:00,63.1,57.9,29.35,ENE,63,4.0,4.0,83,0.00,,,0.31,VWS V14.01,2013-05-10 17:20:00,
2013-05-10 13:22:00,63.1,57.9,29.35,NE,48,2.7,4.0,83,0.00,,,0.31,VWS V14.01,2013-05-10 17:22:00,
2013-05-10 13:25:00,63.1,57.9,29.35,ENE,63,2.7,2.7,83,0.00,,,0.31,VWS V14.01,2013-05-10 17:25:00,
2013-05-10 13:27:00,63.1,57.9,29.35,ENE,63,2.7,2.7,83,0.00,,,0.31,VWS V14.01,2013-05-10 17:27:00,
2013-05-10 13:30:00,63.1,57.9,29.35,ENE,57,3.1,3.1,83,0.00,,,0.31,VWS V14.01,2013-05-10 17:30:00,
2013-05-10 13:32:00,63.1,57.9,29.35,ENE,66,3.1,3.1,83,0.00,,,0.31,VWS V14.01,2013-05-10 17:32:00,
2013-05-10 13:35:00,63.1,57.9,29.35,ENE,64,6.3,6.3,83,0.00,,,0.31,VWS V14.01,2013-05-10 17:35:00,
2013-05-10 13:37:00,63.1,57.9,29.35,ENE,64,6.3,6.3,83,0.00,,,0.31,VWS V14.01,2013-05-10 17:37:00,
2013-05-10 13:40:00,63.1,57.9,29.35,ENE,61,5.4,5.4,83,0.00,,,0.31,VWS V14.01,2013-05-10 17:40:00,
2013-05-10 13:42:00,63.1,57.9,29.35,ENE,61,5.4,5.4,83,0.00,,,0.31,VWS V14.01,2013-05-10 17:42:00,
2013-05-10 13:43:00,61.2,56.6,29.35,ENE,77,4.0,4.0,85,0.00,,,0.31,VWS V14.01,2013-05-10 17:43:00,
2013-05-10 13:45:00,61.2,56.6,29.35,ENE,71,6.3,6.3,85,0.00,,,0.31,VWS V14.01,2013-05-10 17:45:00,
2013-05-10 13:47:00,61.0,56.5,29.35,NE,54,2.7,2.7,85,0.00,,,0.31,VWS V14.01,2013-05-10 17:47:00,
2013-05-10 13:48:00,61.0,56.5,29.35,NE,54,2.7,2.7,85,0.00,,,0.31,VWS V14.01,2013-05-10 17:48:00,
2013-05-10 13:50:00,61.0,56.5,29.35,ENE,71,2.2,2.2,85,0.00,,,0.31,VWS V14.01,2013-05-10 17:50:00,
2013-05-10 13:52:00,61.0,56.5,29.35,NE,41,2.2,2.2,85,0.00,,,0.31,VWS V14.01,2013-05-10 17:52:00,
2013-05-10 13:53:00,61.0,56.5,29.35,NE,41,2.2,2.2,85,0.00,,,0.31,VWS V14.01,2013-05-10 17:53:00,
2013-05-10 13:56:00,61.0,56.5,29.35,NE,49,3.1,3.1,85,0.00,,,0.31,VWS V14.01,2013-05-10 17:56:00,
2013-05-10 13:57:00,61.0,56.5,29.35,NE,49,3.1,3.1,85,0.00,,,0.31,VWS V14.01,2013-05-10 17:57:00,
2013-05-10 13:58:00,61.3,57.1,29.35,NE,41,2.7,3.1,86,0.00,,,0.31,VWS V14.01,2013-05-10 17:58:00,
2013-05-10 14:01:00,61.3,57.1,29.35,NE,47,3.6,3.6,86,0.00,,,0.31,VWS V14.01,2013-05-10 18:01:00,
2013-05-10 14:02:00,61.3,56.5,29.35,NE,40,4.0,4.0,84,0.00,,,0.31,VWS V14.01,2013-05-10 18:02:00,
2013-05-10 14:03:00,61.3,56.5,29.35,NE,40,4.0,4.0,84,0.00,,,0.31,VWS V14.01,2013-05-10 18:03:00,
2013-05-10 14:06:00,61.3,56.5,29.35,ENE,61,3.6,3.6,84,0.00,,,0.31,VWS V14.01,2013-05-10 18:06:00,
2013-05-10 14:08:00,61.9,56.7,29.35,ENE,61,3.6,3.6,83,0.00,,,0.31,VWS V14.01,2013-05-10 18:08:00,
2013-05-10 14:11:00,61.9,56.7,29.35,NE,47,3.1,3.1,83,0.00,,,0.31,VWS V14.01,2013-05-10 18:11:00,
2013-05-10 14:13:00,62.1,56.2,29.35,NE,47,3.1,3.1,81,0.00,,,0.31,VWS V14.01,2013-05-10 18:13:00,
2013-05-10 14:14:00,62.1,56.2,29.35,North,357,3.6,3.6,81,0.00,,,0.31,VWS V14.01,2013-05-10 18:14:00,
2013-05-10 14:16:00,62.1,56.2,29.35,North,357,0.0,0.0,81,0.00,,,0.31,VWS V14.01,2013-05-10 18:16:00,
2013-05-10 14:18:00,62.1,56.2,29.35,North,357,0.0,4.0,81,0.00,,,0.31,VWS V14.01,2013-05-10 18:18:00,
2013-05-10 14:19:00,62.1,56.2,29.35,North,357,0.0,0.0,81,0.00,,,0.31,VWS V14.01,2013-05-10 18:19:00,
2013-05-10 14:21:00,62.1,56.2,29.35,North,357,0.0,0.0,81,0.00,,,0.31,VWS V14.01,2013-05-10 18:21:00,
2013-05-10 14:23:00,62.1,56.2,29.35,NE,48,0.0,0.0,81,0.00,,,0.31,VWS V14.01,2013-05-10 18:23:00,
2013-05-10 14:24:00,62.1,56.2,29.35,NE,49,2.7,2.7,81,0.00,,,0.31,VWS V14.01,2013-05-10 18:24:00,
2013-05-10 14:26:00,63.3,57.0,29.35,NE,42,3.1,4.0,80,0.00,,,0.31,VWS V14.01,2013-05-10 18:26:00,
2013-05-10 14:28:00,63.3,57.0,29.35,NE,42,3.1,3.1,80,0.00,,,0.31,VWS V14.01,2013-05-10 18:28:00,
2013-05-10 14:29:00,63.3,57.0,29.35,NE,42,3.1,3.1,80,0.00,,,0.31,VWS V14.01,2013-05-10 18:29:00,
2013-05-10 14:32:00,63.5,57.2,29.35,NNE,30,0.0,0.0,80,0.00,,,0.31,VWS V14.01,2013-05-10 18:32:00,
2013-05-10 14:33:00,63.9,57.6,29.35,NNE,30,0.0,0.0,80,0.00,,,0.31,VWS V14.01,2013-05-10 18:33:00,
2013-05-10 14:34:00,63.9,57.6,29.35,NNE,30,0.0,0.0,80,0.00,,,0.31,VWS V14.01,2013-05-10 18:34:00,
2013-05-10 14:37:00,64.4,58.1,29.35,NE,34,0.0,0.0,80,0.00,,,0.31,VWS V14.01,2013-05-10 18:37:00,
2013-05-10 14:38:00,64.8,58.5,29.35,NE,34,0.0,0.0,80,0.00,,,0.31,VWS V14.01,2013-05-10 18:38:00,
2013-05-10 14:39:00,64.8,58.5,29.35,NE,34,0.0,0.0,80,0.00,,,0.31,VWS V14.01,2013-05-10 18:39:00,
2013-05-10 14:40:00,64.8,58.5,29.35,NE,47,3.6,3.6,80,0.00,,,0.31,VWS V14.01,2013-05-10 18:40:00,
2013-05-10 14:42:00,64.8,58.5,29.35,NE,49,2.7,2.7,80,0.00,,,0.31,VWS V14.01,2013-05-10 18:42:00,
2013-05-10 14:43:00,64.8,58.5,29.35,NE,52,4.0,4.0,80,0.00,,,0.31,VWS V14.01,2013-05-10 18:43:00,
2013-05-10 14:44:00,64.8,58.5,29.35,NE,52,4.0,4.0,80,0.00,,,0.31,VWS V14.01,2013-05-10 18:44:00,
2013-05-10 14:45:00,64.8,58.5,29.35,NE,41,2.7,4.0,80,0.00,,,0.31,VWS V14.01,2013-05-10 18:45:00,
2013-05-10 14:47:00,65.8,58.1,29.35,NE,41,2.7,2.7,76,0.00,,,0.31,VWS V14.01,2013-05-10 18:47:00,
2013-05-10 14:48:00,65.8,58.1,29.35,ENE,76,3.1,3.1,76,0.00,,,0.31,VWS V14.01,2013-05-10 18:48:00,
2013-05-10 14:49:00,65.8,58.1,29.35,ENE,76,3.1,3.1,76,0.00,,,0.31,VWS V14.01,2013-05-10 18:49:00,
2013-05-10 14:50:00,65.8,58.1,29.35,NE,41,4.0,4.0,76,0.00,,,0.31,VWS V14.01,2013-05-10 18:50:00,
2013-05-10 14:52:00,65.8,58.1,29.35,NNE,18,2.2,2.2,76,0.00,,,0.31,VWS V14.01,2013-05-10 18:52:00,
2013-05-10 14:54:00,66.0,57.9,29.35,ENE,69,3.1,3.1,75,0.00,,,0.31,VWS V14.01,2013-05-10 18:54:00,
2013-05-10 14:55:00,66.0,57.9,29.35,North,0,4.0,4.0,75,0.00,,,0.31,VWS V14.01,2013-05-10 18:55:00,
2013-05-10 14:57:00,66.0,57.9,29.35,North,0,4.0,4.0,75,0.00,,,0.31,VWS V14.01,2013-05-10 18:57:00,
2013-05-10 14:59:00,66.0,57.9,29.35,North,0,4.0,4.0,75,0.00,,,0.31,VWS V14.01,2013-05-10 18:59:00,
2013-05-10 15:00:00,66.0,57.9,29.35,North,0,4.0,4.0,75,0.00,,,0.31,VWS V14.01,2013-05-10 19:00:00,
2013-05-10 15:02:00,66.9,58.4,29.35,North,357,3.1,3.1,74,0.00,,,0.31,VWS V14.01,2013-05-10 19:02:00,
2013-05-10 15:04:00,66.9,58.4,29.35,North,5,5.4,5.4,74,0.00,,,0.31,VWS V14.01,2013-05-10 19:04:00,
2013-05-10 15:05:00,66.9,58.4,29.35,NE,51,3.1,5.4,74,0.00,,,0.31,VWS V14.01,2013-05-10 19:05:00,
2013-05-10 15:06:00,66.9,58.4,29.35,NE,51,3.1,3.1,74,0.00,,,0.31,VWS V14.01,2013-05-10 19:06:00,
2013-05-10 15:08:00,66.9,58.4,29.35,NE,50,4.0,4.0,74,0.00,,,0.31,VWS V14.01,2013-05-10 19:08:00,
2013-05-10 15:09:00,66.6,57.3,29.35,NE,47,3.1,3.1,72,0.00,,,0.31,VWS V14.01,2013-05-10 19:09:00,
2013-05-10 15:10:00,66.6,57.3,29.35,NE,47,3.1,3.1,72,0.00,,,0.31,VWS V14.01,2013-05-10 19:10:00,
2013-05-10 15:11:00,66.6,57.3,29.35,NNE,20,3.6,3.6,72,0.00,,,0.31,VWS V14.01,2013-05-10 19:11:00,
2013-05-10 15:13:00,66.6,57.3,29.35,NNE,20,3.6,3.6,72,0.00,,,0.31,VWS V14.01,2013-05-10 19:13:00,
2013-05-10 15:14:00,66.6,57.3,29.35,NNE,20,3.6,3.6,72,0.00,,,0.31,VWS V14.01,2013-05-10 19:14:00,
2013-05-10 15:15:00,66.6,57.3,29.35,NNE,20,3.6,3.6,72,0.00,,,0.31,VWS V14.01,2013-05-10 19:15:00,
2013-05-10 15:16:00,65.8,57.0,29.35,ENE,58,3.6,3.6,73,0.00,,,0.31,VWS V14.01,2013-05-10 19:16:00,
2013-05-10 15:18:00,65.8,57.0,29.35,ENE,59,3.1,3.6,73,0.00,,,0.31,VWS V14.01,2013-05-10 19:18:00,
2013-05-10 15:19:00,66.0,57.1,29.35,ENE,59,3.1,3.1,73,0.00,,,0.31,VWS V14.01,2013-05-10 19:19:00,
2013-05-10 15:20:00,66.0,57.1,29.35,NNE,24,2.2,2.2,73,0.00,,,0.31,VWS V14.01,2013-05-10 19:20:00,
2013-05-10 15:21:00,66.0,57.1,29.35,NNE,24,2.2,2.2,73,0.00,,,0.31,VWS V14.01,2013-05-10 19:21:00,
2013-05-10 15:23:00,66.0,57.1,29.35,North,11,4.9,4.9,73,0.00,,,0.31,VWS V14.01,2013-05-10 19:23:00,
2013-05-10 15:24:00,66.0,57.1,29.35,NE,53,4.0,4.9,73,0.00,,,0.31,VWS V14.01,2013-05-10 19:24:00,
2013-05-10 15:25:00,66.9,58.0,29.35,NE,53,4.0,4.9,73,0.00,,,0.31,VWS V14.01,2013-05-10 19:25:00,
2013-05-10 15:26:00,66.9,58.0,29.35,ENE,65,4.0,4.0,73,0.00,,,0.31,VWS V14.01,2013-05-10 19:26:00,
2013-05-10 15:28:00,67.1,57.4,29.32,ENE,65,4.0,4.0,71,0.00,,,0.31,VWS V14.01,2013-05-10 19:28:00,
2013-05-10 15:29:00,67.1,57.4,29.32,ENE,66,8.7,8.7,71,0.00,,,0.31,VWS V14.01,2013-05-10 19:29:00,
2013-05-10 15:30:00,67.1,57.4,29.32,ENE,66,8.7,8.7,71,0.00,,,0.31,VWS V14.01,2013-05-10 19:30:00,
2013-05-10 15:31:00,67.1,57.4,29.32,East,82,5.4,5.4,71,0.00,,,0.31,VWS V14.01,2013-05-10 19:31:00,
2013-05-10 15:33:00,67.1,57.4,29.32,East,81,3.6,3.6,71,0.00,,,0.31,VWS V14.01,2013-05-10 19:33:00,
2013-05-10 15:34:00,67.1,57.4,29.32,North,9,3.1,4.0,71,0.00,,,0.31,VWS V14.01,2013-05-10 19:34:00,
2013-05-10 15:35:00,67.1,57.4,29.32,North,353,5.4,5.4,71,0.00,,,0.31,VWS V14.01,2013-05-10 19:35:00,
2013-05-10 15:36:00,67.1,57.4,29.32,NE,56,6.3,6.3,71,0.00,,,0.31,VWS V14.01,2013-05-10 19:36:00,
2013-05-10 15:38:00,67.1,57.4,29.35,East,93,5.8,5.8,71,0.00,,,0.31,VWS V14.01,2013-05-10 19:38:00,
2013-05-10 15:39:00,67.1,57.4,29.35,East,93,5.8,5.8,71,0.00,,,0.31,VWS V14.01,2013-05-10 19:39:00,
2013-05-10 15:40:00,67.1,57.4,29.35,East,93,5.8,5.8,71,0.00,,,0.31,VWS V14.01,2013-05-10 19:40:00,
2013-05-10 15:41:00,66.4,56.7,29.35,East,93,5.8,5.8,71,0.00,,,0.31,VWS V14.01,2013-05-10 19:41:00,
2013-05-10 15:43:00,66.4,56.7,29.35,ENE,59,4.0,4.0,71,0.00,,,0.31,VWS V14.01,2013-05-10 19:43:00,
2013-05-10 15:45:00,66.4,56.7,29.35,ENE,59,4.0,4.0,71,0.00,,,0.31,VWS V14.01,2013-05-10 19:45:00,
2013-05-10 15:46:00,65.7,56.4,29.35,ENE,59,4.0,4.0,72,0.00,,,0.31,VWS V14.01,2013-05-10 19:46:00,
2013-05-10 15:49:00,65.7,56.4,29.35,ENE,63,5.8,5.8,72,0.00,,,0.31,VWS V14.01,2013-05-10 19:49:00,
2013-05-10 15:50:00,65.7,56.4,29.35,ENE,63,5.8,5.8,72,0.00,,,0.31,VWS V14.01,2013-05-10 19:50:00,
2013-05-10 15:51:00,65.7,56.4,29.35,NE,53,4.9,5.8,72,0.00,,,0.31,VWS V14.01,2013-05-10 19:51:00,
2013-05-10 15:54:00,65.7,56.4,29.32,NE,55,3.1,3.1,72,0.00,,,0.31,VWS V14.01,2013-05-10 19:54:00,
2013-05-10 15:55:00,65.7,56.4,29.32,NE,55,3.1,3.1,72,0.00,,,0.31,VWS V14.01,2013-05-10 19:55:00,
2013-05-10 15:56:00,65.5,56.6,29.32,NNE,20,3.6,4.0,73,0.00,,,0.31,VWS V14.01,2013-05-10 19:56:00,
2013-05-10 15:59:00,65.5,56.6,29.32,North,357,4.0,4.0,73,0.00,,,0.31,VWS V14.01,2013-05-10 19:59:00,
2013-05-10 16:00:00,65.5,56.6,29.32,North,357,0.0,4.0,73,0.00,,,0.31,VWS V14.01,2013-05-10 20:00:00,
2013-05-10 16:01:00,65.5,56.6,29.32,North,11,5.8,5.8,73,0.00,,,0.31,VWS V14.01,2013-05-10 20:01:00,
2013-05-10 16:02:00,65.5,56.6,29.32,ENE,58,7.6,7.6,73,0.00,,,0.31,VWS V14.01,2013-05-10 20:02:00,
2013-05-10 16:04:00,66.2,56.5,29.32,ENE,60,5.4,7.6,71,0.00,,,0.31,VWS V14.01,2013-05-10 20:04:00,
2013-05-10 16:05:00,66.2,56.5,29.32,ENE,60,5.4,5.4,71,0.00,,,0.31,VWS V14.01,2013-05-10 20:05:00,
2013-05-10 16:06:00,66.2,56.5,29.32,ENE,60,5.4,5.4,71,0.00,,,0.31,VWS V14.01,2013-05-10 20:06:00,
2013-05-10 16:07:00,66.2,56.5,29.32,ENE,60,3.1,5.4,71,0.00,,,0.31,VWS V14.01,2013-05-10 20:07:00,
2013-05-10 16:09:00,66.2,56.5,29.32,NE,49,5.8,8.1,71,0.00,,,0.31,VWS V14.01,2013-05-10 20:09:00,
2013-05-10 16:10:00,66.2,56.5,29.32,NE,49,5.8,5.8,71,0.00,,,0.31,VWS V14.01,2013-05-10 20:10:00,
2013-05-10 16:11:00,66.4,56.7,29.32,NE,49,5.8,5.8,71,0.00,,,0.31,VWS V14.01,2013-05-10 20:11:00,
2013-05-10 16:12:00,66.4,56.7,29.32,NE,49,5.8,5.8,71,0.00,,,0.31,VWS V14.01,2013-05-10 20:12:00,
2013-05-10 16:14:00,66.4,56.7,29.32,NE,37,6.3,6.3,71,0.00,,,0.31,VWS V14.01,2013-05-10 20:14:00,
2013-05-10 16:16:00,66.4,56.7,29.32,East,79,5.4,5.4,71,0.00,,,0.31,VWS V14.01,2013-05-10 20:16:00,
2013-05-10 16:17:00,66.4,56.7,29.32,ENE,69,6.3,6.3,71,0.00,,,0.31,VWS V14.01,2013-05-10 20:17:00,
2013-05-10 16:19:00,66.2,56.1,29.32,ENE,69,6.3,6.3,70,0.00,,,0.31,VWS V14.01,2013-05-10 20:19:00,
2013-05-10 16:21:00,66.2,56.1,29.32,ENE,69,6.3,6.3,70,0.00,,,0.31,VWS V14.01,2013-05-10 20:21:00,
2013-05-10 16:23:00,66.2,56.1,29.32,NNE,16,2.7,3.6,70,0.00,,,0.31,VWS V14.01,2013-05-10 20:23:00,
2013-05-10 16:24:00,66.2,56.5,29.32,NNE,30,3.6,3.6,71,0.00,,,0.31,VWS V14.01,2013-05-10 20:24:00,
2013-05-10 16:26:00,66.2,56.5,29.32,NNE,30,3.6,3.6,71,0.00,,,0.31,VWS V14.01,2013-05-10 20:26:00,
2013-05-10 16:28:00,66.0,56.4,29.32,NNE,30,3.6,3.6,71,0.00,,,0.31,VWS V14.01,2013-05-10 20:28:00,
2013-05-10 16:30:00,66.0,56.4,29.32,NE,55,4.0,4.0,71,0.00,,,0.31,VWS V14.01,2013-05-10 20:30:00,
2013-05-10 16:31:00,66.0,56.4,29.32,NE,45,2.2,2.2,71,0.00,,,0.31,VWS V14.01,2013-05-10 20:31:00,
2013-05-10 16:32:00,66.0,56.4,29.32,NE,45,2.2,2.2,71,0.00,,,0.31,VWS V14.01,2013-05-10 20:32:00,
2013-05-10 16:33:00,66.0,56.4,29.32,ENE,59,2.7,2.7,71,0.00,,,0.31,VWS V14.01,2013-05-10 20:33:00,
2013-05-10 16:35:00,66.0,56.4,29.32,ENE,60,3.6,3.6,71,0.00,,,0.31,VWS V14.01,2013-05-10 20:35:00,
2013-05-10 16:36:00,66.0,56.4,29.32,ENE,60,3.6,3.6,71,0.00,,,0.31,VWS V14.01,2013-05-10 20:36:00,
2013-05-10 16:37:00,64.9,55.3,29.32,ENE,60,3.6,3.6,71,0.00,,,0.31,VWS V14.01,2013-05-10 20:37:00,
2013-05-10 16:38:00,64.9,55.3,29.32,ENE,60,3.6,3.6,71,0.00,,,0.31,VWS V14.01,2013-05-10 20:38:00,
2013-05-10 16:40:00,64.9,55.3,29.32,NE,40,2.7,2.7,71,0.00,,,0.31,VWS V14.01,2013-05-10 20:40:00,
2013-05-10 16:41:00,64.9,55.3,29.32,NE,40,2.7,2.7,71,0.00,,,0.31,VWS V14.01,2013-05-10 20:41:00,
2013-05-10 16:42:00,64.9,55.3,29.32,North,8,2.2,2.7,71,0.00,,,0.31,VWS V14.01,2013-05-10 20:42:00,
2013-05-10 16:43:00,64.9,55.3,29.32,North,8,2.2,2.2,71,0.00,,,0.31,VWS V14.01,2013-05-10 20:43:00,
2013-05-10 16:45:00,64.9,55.3,29.32,NNE,14,3.1,3.1,71,0.00,,,0.31,VWS V14.01,2013-05-10 20:45:00,
2013-05-10 16:46:00,65.3,55.7,29.32,NNE,14,3.1,3.1,71,0.00,,,0.31,VWS V14.01,2013-05-10 20:46:00,
2013-05-10 16:47:00,65.3,55.7,29.32,NNE,14,3.1,3.1,71,0.00,,,0.31,VWS V14.01,2013-05-10 20:47:00,
2013-05-10 16:48:00,65.3,55.7,29.32,NNE,14,3.1,3.1,71,0.00,,,0.31,VWS V14.01,2013-05-10 20:48:00,
2013-05-10 16:50:00,65.3,55.7,29.32,ENE,60,4.9,4.9,71,0.00,,,0.31,VWS V14.01,2013-05-10 20:50:00,
2013-05-10 16:51:00,65.3,55.7,29.32,ENE,60,4.9,4.9,71,0.00,,,0.31,VWS V14.01,2013-05-10 20:51:00,
2013-05-10 16:52:00,65.3,55.7,29.32,ENE,63,8.3,8.3,71,0.00,,,0.31,VWS V14.01,2013-05-10 20:52:00,
2013-05-10 16:53:00,65.3,55.7,29.32,ENE,77,4.9,8.3,71,0.00,,,0.31,VWS V14.01,2013-05-10 20:53:00,
2013-05-10 16:55:00,65.3,55.7,29.32,ENE,66,3.6,3.6,71,0.00,,,0.31,VWS V14.01,2013-05-10 20:55:00,
2013-05-10 16:56:00,65.3,55.7,29.32,ENE,66,3.6,3.6,71,0.00,,,0.31,VWS V14.01,2013-05-10 20:56:00,
2013-05-10 16:58:00,65.3,55.7,29.32,ENE,67,5.8,5.8,71,0.00,,,0.31,VWS V14.01,2013-05-10 20:58:00,
2013-05-10 17:00:00,64.9,55.3,29.32,ENE,58,5.8,5.8,71,0.00,,,0.31,VWS V14.01,2013-05-10 21:00:00,
2013-05-10 17:01:00,64.9,55.3,29.32,ENE,61,5.8,5.8,71,0.00,,,0.31,VWS V14.01,2013-05-10 21:01:00,
2013-05-10 17:03:00,64.8,55.2,29.32,ENE,65,4.0,4.0,71,0.00,,,0.31,VWS V14.01,2013-05-10 21:03:00,
2013-05-10 17:05:00,64.8,55.2,29.32,ENE,65,4.0,4.0,71,0.00,,,0.31,VWS V14.01,2013-05-10 21:05:00,
2013-05-10 17:06:00,64.8,55.2,29.32,ENE,70,8.3,8.3,71,0.00,,,0.31,VWS V14.01,2013-05-10 21:06:00,
2013-05-10 17:08:00,64.8,55.2,29.32,ENE,70,8.3,8.3,71,0.00,,,0.31,VWS V14.01,2013-05-10 21:08:00,
2013-05-10 17:10:00,64.8,55.2,29.32,ENE,67,6.3,6.3,71,0.00,,,0.31,VWS V14.01,2013-05-10 21:10:00,
2013-05-10 17:11:00,64.2,54.6,29.32,ENE,67,6.3,6.3,71,0.00,,,0.31,VWS V14.01,2013-05-10 21:11:00,
2013-05-10 17:13:00,64.2,54.6,29.35,ENE,63,8.1,8.1,71,0.00,,,0.31,VWS V14.01,2013-05-10 21:13:00,
2013-05-10 17:14:00,63.5,53.9,29.35,ENE,63,8.1,8.1,71,0.00,,,0.31,VWS V14.01,2013-05-10 21:14:00,
2013-05-10 17:16:00,63.5,53.9,29.35,East,79,4.9,5.4,71,0.00,,,0.31,VWS V14.01,2013-05-10 21:16:00,
2013-05-10 17:17:00,63.5,53.9,29.35,NE,55,6.3,6.3,71,0.00,,,0.31,VWS V14.01,2013-05-10 21:17:00,
2013-05-10 17:18:00,63.5,53.9,29.35,ENE,64,7.6,7.6,71,0.00,,,0.31,VWS V14.01,2013-05-10 21:18:00,
2013-05-10 17:19:00,63.5,53.9,29.35,ENE,64,7.6,7.6,71,0.00,,,0.31,VWS V14.01,2013-05-10 21:19:00,
2013-05-10 17:21:00,62.1,53.3,29.35,ENE,69,5.8,5.8,73,0.00,,,0.31,VWS V14.01,2013-05-10 21:21:00,
2013-05-10 17:23:00,62.1,53.3,29.35,ENE,69,5.8,5.8,73,0.00,,,0.31,VWS V14.01,2013-05-10 21:23:00,
2013-05-10 17:24:00,62.1,53.3,29.35,East,91,7.6,7.6,73,0.00,,,0.31,VWS V14.01,2013-05-10 21:24:00,
2013-05-10 17:26:00,62.1,53.3,29.35,ENE,63,6.3,6.3,73,0.00,,,0.31,VWS V14.01,2013-05-10 21:26:00,
2013-05-10 17:28:00,62.1,53.3,29.35,East,79,6.3,6.3,73,0.00,,,0.31,VWS V14.01,2013-05-10 21:28:00,
2013-05-10 17:29:00,61.2,52.5,29.35,East,79,5.4,5.4,73,0.00,,,0.31,VWS V14.01,2013-05-10 21:29:00,
2013-05-10 17:31:00,61.2,52.5,29.35,East,79,5.4,5.4,73,0.00,,,0.31,VWS V14.01,2013-05-10 21:31:00,
2013-05-10 17:33:00,61.2,52.5,29.35,ENE,76,11.0,11.0,73,0.00,,,0.31,VWS V14.01,2013-05-10 21:33:00,
2013-05-10 17:34:00,61.2,52.5,29.35,ENE,76,11.0,11.0,73,0.00,,,0.31,VWS V14.01,2013-05-10 21:34:00,
2013-05-10 17:36:00,61.2,52.5,29.35,ENE,65,5.4,5.4,73,0.00,,,0.31,VWS V14.01,2013-05-10 21:36:00,
2013-05-10 17:38:00,59.2,50.9,29.35,ENE,77,5.4,5.4,74,0.00,,,0.31,VWS V14.01,2013-05-10 21:38:00,
2013-05-10 17:39:00,59.2,50.9,29.35,ENE,77,5.4,5.4,74,0.00,,,0.31,VWS V14.01,2013-05-10 21:39:00,
2013-05-10 17:42:00,59.0,51.1,29.35,East,89,8.3,8.3,75,0.00,,,0.31,VWS V14.01,2013-05-10 21:42:00,
2013-05-10 17:43:00,59.0,51.1,29.35,ENE,57,8.7,8.7,75,0.00,,,0.31,VWS V14.01,2013-05-10 21:43:00,
2013-05-10 17:44:00,59.0,51.1,29.35,ENE,57,8.7,8.7,75,0.00,,,0.31,VWS V14.01,2013-05-10 21:44:00,
2013-05-10 17:47:00,59.0,51.1,29.35,ENE,70,8.7,8.7,75,0.00,,,0.31,VWS V14.01,2013-05-10 21:47:00,
2013-05-10 17:48:00,59.0,51.1,29.35,ENE,65,8.3,8.3,75,0.00,,,0.31,VWS V14.01,2013-05-10 21:48:00,
2013-05-10 17:49:00,59.0,51.1,29.35,ENE,65,8.3,8.3,75,0.00,,,0.31,VWS V14.01,2013-05-10 21:49:00,
2013-05-10 17:50:00,59.0,51.1,29.35,ENE,65,8.3,8.3,75,0.00,,,0.31,VWS V14.01,2013-05-10 21:50:00,
2013-05-10 17:52:00,59.0,51.1,29.35,NE,56,5.4,5.4,75,0.00,,,0.31,VWS V14.01,2013-05-10 21:52:00,
2013-05-10 17:53:00,59.0,51.1,29.35,ENE,74,6.3,6.3,75,0.00,,,0.31,VWS V14.01,2013-05-10 21:53:00,
2013-05-10 17:54:00,59.0,51.1,29.35,ENE,74,6.3,6.3,75,0.00,,,0.31,VWS V14.01,2013-05-10 21:54:00,
2013-05-10 17:55:00,57.2,50.1,29.35,ENE,74,6.3,6.3,77,0.00,,,0.31,VWS V14.01,2013-05-10 21:55:00,
2013-05-10 17:58:00,57.2,50.1,29.35,ENE,72,4.9,4.9,77,0.00,,,0.31,VWS V14.01,2013-05-10 21:58:00,
2013-05-10 18:03:00,56.5,50.4,29.35,ENE,73,3.1,3.1,80,0.00,,,0.31,VWS V14.01,2013-05-10 22:03:00,
2013-05-10 18:08:00,56.1,50.0,29.35,East,83,7.6,7.6,80,0.00,,,0.31,VWS V14.01,2013-05-10 22:08:00,
2013-05-10 18:09:00,56.1,50.0,29.35,East,83,7.6,7.6,80,0.00,,,0.31,VWS V14.01,2013-05-10 22:09:00,
2013-05-10 18:13:00,56.1,50.0,29.35,ENE,75,6.3,6.3,80,0.00,,,0.31,VWS V14.01,2013-05-10 22:13:00,
2013-05-10 18:14:00,55.6,50.2,29.35,ENE,75,6.3,6.3,82,0.00,,,0.31,VWS V14.01,2013-05-10 22:14:00,
2013-05-10 18:18:00,55.6,50.2,29.35,ENE,68,5.4,5.4,82,0.00,,,0.31,VWS V14.01,2013-05-10 22:18:00,
2013-05-10 18:19:00,55.2,49.5,29.35,ENE,58,6.3,6.3,81,0.00,,,0.31,VWS V14.01,2013-05-10 22:19:00,
2013-05-10 18:23:00,55.0,49.3,29.35,ENE,78,5.4,5.4,81,0.00,,,0.31,VWS V14.01,2013-05-10 22:23:00,
2013-05-10 18:24:00,55.0,49.3,29.35,ENE,78,5.4,5.4,81,0.00,,,0.31,VWS V14.01,2013-05-10 22:24:00,
2013-05-10 18:28:00,54.7,49.0,29.35,ENE,68,5.8,5.8,81,0.00,,,0.31,VWS V14.01,2013-05-10 22:28:00,
2013-05-10 18:29:00,54.1,48.8,29.35,ENE,68,5.8,5.8,82,0.00,,,0.31,VWS V14.01,2013-05-10 22:29:00,
2013-05-10 18:33:00,54.0,48.9,29.35,NE,54,10.1,10.1,83,0.00,,,0.31,VWS V14.01,2013-05-10 22:33:00,
2013-05-10 18:34:00,54.0,48.9,29.35,ENE,65,8.1,8.1,83,0.00,,,0.31,VWS V14.01,2013-05-10 22:34:00,
2013-05-10 18:35:00,54.0,48.9,29.35,ENE,76,8.7,8.7,83,0.00,,,0.31,VWS V14.01,2013-05-10 22:35:00,
2013-05-10 18:38:00,54.0,48.9,29.35,ESE,111,5.4,5.4,83,0.00,,,0.31,VWS V14.01,2013-05-10 22:38:00,
2013-05-10 18:39:00,54.0,48.9,29.35,ESE,111,5.4,5.4,83,0.00,,,0.31,VWS V14.01,2013-05-10 22:39:00,
2013-05-10 18:40:00,54.0,48.9,29.35,NE,48,4.0,5.4,83,0.00,,,0.31,VWS V14.01,2013-05-10 22:40:00,
2013-05-10 18:43:00,54.0,48.9,29.35,ENE,72,6.3,6.3,83,0.00,,,0.31,VWS V14.01,2013-05-10 22:43:00,
2013-05-10 18:44:00,54.0,48.9,29.35,ENE,72,6.3,6.3,83,0.00,,,0.31,VWS V14.01,2013-05-10 22:44:00,
2013-05-10 18:45:00,54.0,48.9,29.35,ENE,70,8.1,8.1,83,0.00,,,0.31,VWS V14.01,2013-05-10 22:45:00,
2013-05-10 18:48:00,52.7,48.3,29.35,ENE,78,6.3,8.1,85,0.00,,,0.31,VWS V14.01,2013-05-10 22:48:00,
2013-05-10 18:49:00,52.7,48.3,29.35,ENE,78,6.3,8.1,85,0.00,,,0.31,VWS V14.01,2013-05-10 22:49:00,
2013-05-10 18:50:00,52.7,48.3,29.35,ENE,78,6.3,6.3,85,0.00,,,0.31,VWS V14.01,2013-05-10 22:50:00,
2013-05-10 18:54:00,52.5,48.2,29.35,ENE,76,7.6,7.6,85,0.00,,,0.31,VWS V14.01,2013-05-10 22:54:00,
2013-05-10 18:55:00,52.2,48.1,29.35,ENE,60,8.1,8.1,86,0.00,,,0.31,VWS V14.01,2013-05-10 22:55:00,
2013-05-10 18:59:00,52.2,48.1,29.35,ENE,68,6.3,6.3,86,0.00,,,0.31,VWS V14.01,2013-05-10 22:59:00,
2013-05-10 19:00:00,52.2,48.1,29.38,ENE,63,3.1,6.3,86,0.00,,,0.31,VWS V14.01,2013-05-10 23:00:00,
2013-05-10 19:01:00,52.2,48.1,29.38,ENE,63,3.1,3.1,86,0.00,,,0.31,VWS V14.01,2013-05-10 23:01:00,
2013-05-10 19:04:00,52.2,48.1,29.38,ENE,69,5.8,5.8,86,0.00,,,0.31,VWS V14.01,2013-05-10 23:04:00,
2013-05-10 19:05:00,52.2,48.1,29.38,ENE,69,5.8,5.8,86,0.00,,,0.31,VWS V14.01,2013-05-10 23:05:00,
2013-05-10 19:06:00,52.2,48.1,29.38,ENE,72,5.8,5.8,86,0.00,,,0.31,VWS V14.01,2013-05-10 23:06:00,
2013-05-10 19:09:00,51.8,48.4,29.38,NE,56,4.9,4.9,88,0.00,,,0.31,VWS V14.01,2013-05-10 23:09:00,
2013-05-10 19:10:00,51.8,48.4,29.38,NE,56,4.9,4.9,88,0.00,,,0.31,VWS V14.01,2013-05-10 23:10:00,
2013-05-10 19:11:00,51.8,48.4,29.38,ENE,71,4.9,4.9,88,0.00,,,0.31,VWS V14.01,2013-05-10 23:11:00,
2013-05-10 19:14:00,51.8,48.4,29.38,ENE,59,4.0,4.0,88,0.00,,,0.31,VWS V14.01,2013-05-10 23:14:00,
2013-05-10 19:15:00,51.8,48.4,29.38,ENE,75,5.8,5.8,88,0.00,,,0.31,VWS V14.01,2013-05-10 23:15:00,
2013-05-10 19:17:00,51.8,48.4,29.38,ENE,75,5.8,5.8,88,0.00,,,0.31,VWS V14.01,2013-05-10 23:17:00,
2013-05-10 19:19:00,51.8,48.4,29.38,ENE,71,8.7,8.7,88,0.00,,,0.31,VWS V14.01,2013-05-10 23:19:00,
2013-05-10 19:20:00,51.8,48.4,29.38,ENE,71,8.7,8.7,88,0.00,,,0.31,VWS V14.01,2013-05-10 23:20:00,
2013-05-10 19:21:00,52.0,48.5,29.38,ENE,71,8.7,8.7,88,0.00,,,0.31,VWS V14.01,2013-05-10 23:21:00,
2013-05-10 19:22:00,52.0,48.5,29.38,ENE,61,4.9,4.9,88,0.00,,,0.31,VWS V14.01,2013-05-10 23:22:00,
2013-05-10 19:24:00,51.8,48.1,29.38,ENE,68,4.5,5.8,87,0.00,,,0.31,VWS V14.01,2013-05-10 23:24:00,
2013-05-10 19:25:00,51.8,48.1,29.38,ENE,68,4.5,4.5,87,0.00,,,0.31,VWS V14.01,2013-05-10 23:25:00,
2013-05-10 19:26:00,51.8,48.1,29.38,ENE,67,6.3,6.3,87,0.00,,,0.31,VWS V14.01,2013-05-10 23:26:00,
2013-05-10 19:27:00,51.8,48.1,29.38,ENE,71,5.8,6.3,87,0.00,,,0.31,VWS V14.01,2013-05-10 23:27:00,
2013-05-10 19:29:00,51.8,48.1,29.38,ENE,69,5.8,5.8,87,0.00,,,0.31,VWS V14.01,2013-05-10 23:29:00,
2013-05-10 19:30:00,51.8,48.1,29.38,ENE,69,5.8,5.8,87,0.00,,,0.31,VWS V14.01,2013-05-10 23:30:00,
2013-05-10 19:31:00,51.8,48.1,29.38,ENE,69,5.8,5.8,87,0.00,,,0.31,VWS V14.01,2013-05-10 23:31:00,
2013-05-10 19:32:00,51.8,48.1,29.38,ENE,69,5.8,5.8,87,0.00,,,0.31,VWS V14.01,2013-05-10 23:32:00,
2013-05-10 19:34:00,51.6,48.2,29.38,ENE,76,4.0,6.3,88,0.00,,,0.31,VWS V14.01,2013-05-10 23:34:00,
2013-05-10 19:35:00,51.6,48.2,29.38,ENE,76,4.0,4.0,88,0.00,,,0.31,VWS V14.01,2013-05-10 23:35:00,
2013-05-10 19:36:00,51.6,48.2,29.38,ENE,64,5.8,5.8,88,0.00,,,0.31,VWS V14.01,2013-05-10 23:36:00,
2013-05-10 19:37:00,51.6,48.2,29.38,ENE,57,3.6,3.6,88,0.00,,,0.31,VWS V14.01,2013-05-10 23:37:00,
2013-05-10 19:39:00,51.6,48.5,29.38,ENE,57,3.6,3.6,89,0.00,,,0.31,VWS V14.01,2013-05-10 23:39:00,
2013-05-10 19:40:00,51.6,48.5,29.38,ENE,57,3.6,3.6,89,0.00,,,0.31,VWS V14.01,2013-05-10 23:40:00,
2013-05-10 19:41:00,51.6,48.5,29.38,ENE,72,8.3,8.3,89,0.00,,,0.31,VWS V14.01,2013-05-10 23:41:00,
2013-05-10 19:42:00,51.6,48.5,29.38,ENE,72,8.3,8.3,89,0.00,,,0.31,VWS V14.01,2013-05-10 23:42:00,
2013-05-10 19:45:00,51.6,48.5,29.38,ENE,72,8.7,8.7,89,0.00,,,0.31,VWS V14.01,2013-05-10 23:45:00,
2013-05-10 19:46:00,51.4,48.3,29.38,East,81,5.4,5.8,89,0.00,,,0.31,VWS V14.01,2013-05-10 23:46:00,
2013-05-10 19:47:00,51.4,48.3,29.38,NE,52,5.4,5.4,89,0.00,,,0.31,VWS V14.01,2013-05-10 23:47:00,
2013-05-10 19:50:00,51.4,48.3,29.38,ENE,68,5.8,5.8,89,0.00,,,0.31,VWS V14.01,2013-05-10 23:50:00,
2013-05-10 19:52:00,51.4,48.3,29.38,East,81,5.4,6.3,89,0.00,,,0.31,VWS V14.01,2013-05-10 23:52:00,
2013-05-10 19:55:00,51.4,48.3,29.38,NE,53,8.3,8.3,89,0.00,,,0.31,VWS V14.01,2013-05-10 23:55:00,
2013-05-10 19:57:00,51.4,48.3,29.38,NE,53,8.3,8.3,89,0.00,,,0.31,VWS V14.01,2013-05-10 23:57:00,
2013-05-10 19:58:00,51.3,48.1,29.38,ENE,74,11.0,11.0,89,0.00,,,0.31,VWS V14.01,2013-05-10 23:58:00,
2013-05-10 20:00:00,51.3,48.1,29.38,ENE,62,5.4,11.0,89,0.00,,,0.31,VWS V14.01,2013-05-11 00:00:00,
2013-05-10 20:02:00,51.3,48.1,29.38,ENE,58,6.3,6.3,89,0.00,,,0.31,VWS V14.01,2013-05-11 00:02:00,
2013-05-10 20:03:00,51.3,48.1,29.38,ENE,70,7.6,7.6,89,0.00,,,0.31,VWS V14.01,2013-05-11 00:03:00,
2013-05-10 20:05:00,51.3,48.4,29.38,ENE,65,5.4,5.4,90,0.00,,,0.31,VWS V14.01,2013-05-11 00:05:00,
2013-05-10 20:07:00,51.3,48.4,29.38,ENE,65,5.4,5.4,90,0.00,,,0.31,VWS V14.01,2013-05-11 00:07:00,
2013-05-10 20:08:00,51.3,48.4,29.38,East,94,8.3,8.3,90,0.00,,,0.31,VWS V14.01,2013-05-11 00:08:00,
2013-05-10 20:10:00,51.3,48.4,29.38,East,94,8.3,8.3,90,0.00,,,0.31,VWS V14.01,2013-05-11 00:10:00,
2013-05-10 20:12:00,51.3,48.4,29.38,ENE,64,8.3,8.7,90,0.00,,,0.31,VWS V14.01,2013-05-11 00:12:00,
2013-05-10 20:13:00,50.9,47.8,29.38,ENE,64,8.3,8.3,89,0.00,,,0.31,VWS V14.01,2013-05-11 00:13:00,
2013-05-10 20:15:00,50.9,48.1,29.38,ENE,60,8.1,8.1,90,0.00,,,0.31,VWS V14.01,2013-05-11 00:15:00,
2013-05-10 20:16:00,50.9,48.1,29.38,East,79,6.3,6.3,90,0.00,,,0.31,VWS V14.01,2013-05-11 00:16:00,
2013-05-10 20:17:00,50.9,48.1,29.38,ENE,75,10.1,10.1,90,0.00,,,0.31,VWS V14.01,2013-05-11 00:17:00,
2013-05-10 20:18:00,50.9,48.1,29.38,ENE,75,10.1,10.1,90,0.00,,,0.31,VWS V14.01,2013-05-11 00:18:00,
2013-05-10 20:20:00,50.9,48.1,29.38,ENE,73,8.1,8.1,90,0.00,,,0.31,VWS V14.01,2013-05-11 00:20:00,
2013-05-10 20:21:00,50.9,48.1,29.38,ENE,61,5.8,8.1,90,0.00,,,0.31,VWS V14.01,2013-05-11 00:21:00,
2013-05-10 20:23:00,50.5,47.4,29.38,ENE,61,5.8,5.8,89,0.00,,,0.31,VWS V14.01,2013-05-11 00:23:00,
2013-05-10 20:25:00,50.5,47.4,29.38,ENE,61,5.8,5.8,89,0.00,,,0.31,VWS V14.01,2013-05-11 00:25:00,
2013-05-10 20:26:00,50.5,47.4,29.38,ENE,67,7.6,7.6,89,0.00,,,0.31,VWS V14.01,2013-05-11 00:26:00,
2013-05-10 20:28:00,50.5,47.4,29.38,ENE,75,4.9,4.9,89,0.00,,,0.31,VWS V14.01,2013-05-11 00:28:00,
2013-05-10 20:30:00,50.5,48.0,29.41,ENE,65,5.4,5.4,91,0.00,,,0.31,VWS V14.01,2013-05-11 00:30:00,
2013-05-10 20:31:00,50.5,48.0,29.41,ENE,65,5.4,5.4,91,0.00,,,0.31,VWS V14.01,2013-05-11 00:31:00,
2013-05-10 20:32:00,50.5,48.0,29.41,ENE,65,5.4,5.4,91,0.00,,,0.31,VWS V14.01,2013-05-11 00:32:00,
2013-05-10 20:33:00,50.5,48.0,29.41,ENE,75,5.4,5.4,91,0.00,,,0.31,VWS V14.01,2013-05-11 00:33:00,
2013-05-10 20:36:00,50.4,48.1,29.41,East,95,5.8,5.8,92,0.00,,,0.31,VWS V14.01,2013-05-11 00:36:00,
2013-05-10 20:37:00,50.4,48.1,29.41,ENE,65,6.3,6.3,92,0.00,,,0.31,VWS V14.01,2013-05-11 00:37:00,
2013-05-10 20:38:00,50.4,48.1,29.41,ENE,65,6.3,6.3,92,0.00,,,0.31,VWS V14.01,2013-05-11 00:38:00,
2013-05-10 20:41:00,50.0,48.1,29.41,East,82,4.0,4.0,93,0.00,,,0.31,VWS V14.01,2013-05-11 00:41:00,
2013-05-10 20:42:00,50.0,48.3,29.41,ENE,62,8.1,8.1,94,0.00,,,0.31,VWS V14.01,2013-05-11 00:42:00,
2013-05-10 20:43:00,50.0,48.3,29.41,ENE,62,5.4,8.1,94,0.00,,,0.31,VWS V14.01,2013-05-11 00:43:00,
2013-05-10 20:46:00,49.8,48.5,29.41,ENE,67,5.4,5.4,95,0.00,,,0.31,VWS V14.01,2013-05-11 00:46:00,
2013-05-10 20:47:00,49.8,48.5,29.41,ENE,67,5.4,5.4,95,0.00,,,0.31,VWS V14.01,2013-05-11 00:47:00,
2013-05-10 20:48:00,49.8,48.5,29.41,ENE,66,8.1,8.1,95,0.00,,,0.31,VWS V14.01,2013-05-11 00:48:00,
2013-05-10 20:51:00,49.8,48.5,29.41,ENE,66,8.1,8.1,95,0.00,,,0.31,VWS V14.01,2013-05-11 00:51:00,
2013-05-10 20:52:00,49.8,48.5,29.41,ENE,62,7.6,7.6,95,0.00,,,0.31,VWS V14.01,2013-05-11 00:52:00,
2013-05-10 20:53:00,49.8,48.5,29.41,ENE,62,7.6,7.6,95,0.00,,,0.31,VWS V14.01,2013-05-11 00:53:00,
2013-05-10 20:54:00,49.8,48.5,29.41,ENE,62,7.6,7.6,95,0.00,,,0.31,VWS V14.01,2013-05-11 00:54:00,
2013-05-10 20:56:00,49.6,49.4,29.41,NE,40,7.6,7.6,99,0.00,,,0.31,VWS V14.01,2013-05-11 00:56:00,
2013-05-10 20:57:00,49.6,49.4,29.41,ENE,65,8.3,8.3,99,0.00,,,0.31,VWS V14.01,2013-05-11 00:57:00,
2013-05-10 20:58:00,49.6,49.4,29.41,ENE,65,8.3,8.3,99,0.00,,,0.31,VWS V14.01,2013-05-11 00:58:00,
2013-05-10 20:59:00,49.6,49.4,29.41,ENE,65,8.3,8.3,99,0.00,,,0.31,VWS V14.01,2013-05-11 00:59:00,
2013-05-10 21:01:00,49.6,49.4,29.41,ENE,70,9.2,9.2,99,0.00,,,0.31,VWS V14.01,2013-05-11 01:01:00,
2013-05-10 21:02:00,49.6,49.4,29.41,ENE,70,9.2,9.2,99,0.00,,,0.31,VWS V14.01,2013-05-11 01:02:00,
2013-05-10 21:03:00,49.6,49.4,29.41,ENE,64,5.4,9.2,99,0.00,,,0.31,VWS V14.01,2013-05-11 01:03:00,
2013-05-10 21:04:00,49.6,49.4,29.41,ENE,64,5.4,5.4,99,0.00,,,0.31,VWS V14.01,2013-05-11 01:04:00,
2013-05-10 21:06:00,49.3,49.3,29.41,NE,56,5.4,5.4,100,0.00,,,0.31,VWS V14.01,2013-05-11 01:06:00,
2013-05-10 21:07:00,49.3,49.3,29.41,NE,56,5.4,5.4,100,0.00,,,0.31,VWS V14.01,2013-05-11 01:07:00,
2013-05-10 21:08:00,49.3,49.3,29.41,NE,56,5.4,5.4,100,0.00,,,0.31,VWS V14.01,2013-05-11 01:08:00,
2013-05-10 21:09:00,49.3,49.3,29.41,NE,56,5.4,5.4,100,0.00,,,0.31,VWS V14.01,2013-05-11 01:09:00,
2013-05-10 21:11:00,49.3,49.3,29.41,NE,50,6.3,7.6,100,0.00,,,0.31,VWS V14.01,2013-05-11 01:11:00,
2013-05-10 21:12:00,49.3,49.3,29.41,NE,50,6.3,6.3,100,0.00,,,0.31,VWS V14.01,2013-05-11 01:12:00,
2013-05-10 21:13:00,49.3,49.3,29.41,NE,50,6.3,6.3,100,0.00,,,0.31,VWS V14.01,2013-05-11 01:13:00,
2013-05-10 21:14:00,49.3,49.3,29.41,NE,50,6.3,6.3,100,0.00,,,0.31,VWS V14.01,2013-05-11 01:14:00,
2013-05-10 21:17:00,49.3,49.3,29.41,ENE,59,6.3,6.3,100,0.00,,,0.31,VWS V14.01,2013-05-11 01:17:00,
2013-05-10 21:18:00,49.3,49.3,29.41,ENE,66,5.4,5.4,100,0.00,,,0.31,VWS V14.01,2013-05-11 01:18:00,
2013-05-10 21:19:00,48.9,48.9,29.41,ENE,63,8.7,8.7,100,0.00,,,0.31,VWS V14.01,2013-05-11 01:19:00,
2013-05-10 21:22:00,48.9,48.9,29.41,East,81,5.4,5.4,100,0.00,,,0.31,VWS V14.01,2013-05-11 01:22:00,
2013-05-10 21:23:00,48.9,48.9,29.41,ENE,60,6.3,6.3,100,0.00,,,0.31,VWS V14.01,2013-05-11 01:23:00,
2013-05-10 21:24:00,48.9,48.9,29.41,ENE,60,6.3,6.3,100,0.00,,,0.31,VWS V14.01,2013-05-11 01:24:00,
2013-05-10 21:27:00,48.9,48.9,29.41,NE,43,6.3,6.3,100,0.00,,,0.31,VWS V14.01,2013-05-11 01:27:00,
2013-05-10 21:28:00,48.9,48.9,29.41,East,85,3.1,6.3,100,0.00,,,0.31,VWS V14.01,2013-05-11 01:28:00,
2013-05-10 21:29:00,48.9,48.9,29.41,East,85,3.1,3.1,100,0.00,,,0.31,VWS V14.01,2013-05-11 01:29:00,
2013-05-10 21:32:00,48.7,48.7,29.41,East,94,6.3,6.3,100,0.00,,,0.31,VWS V14.01,2013-05-11 01:32:00,
2013-05-10 21:33:00,48.7,48.7,29.41,East,94,6.3,6.3,100,0.00,,,0.31,VWS V14.01,2013-05-11 01:33:00,
2013-05-10 21:34:00,48.7,48.7,29.41,ENE,72,5.4,5.4,100,0.00,,,0.31,VWS V14.01,2013-05-11 01:34:00,
2013-05-10 21:35:00,48.7,48.7,29.41,ENE,72,5.4,5.4,100,0.00,,,0.31,VWS V14.01,2013-05-11 01:35:00,
2013-05-10 21:38:00,48.7,48.7,29.41,ENE,61,7.6,7.6,100,0.00,,,0.31,VWS V14.01,2013-05-11 01:38:00,
2013-05-10 21:39:00,48.7,48.7,29.41,ENE,64,8.1,8.1,100,0.00,,,0.31,VWS V14.01,2013-05-11 01:39:00,
2013-05-10 21:40:00,48.7,48.7,29.41,ENE,64,8.1,8.1,100,0.00,,,0.31,VWS V14.01,2013-05-11 01:40:00,
2013-05-10 21:43:00,48.7,48.7,29.41,NE,50,3.6,3.6,100,0.00,,,0.31,VWS V14.01,2013-05-11 01:43:00,
2013-05-10 21:44:00,48.7,48.7,29.41,ENE,76,3.6,3.6,100,0.00,,,0.31,VWS V14.01,2013-05-11 01:44:00,
2013-05-10 21:45:00,48.7,48.7,29.41,ENE,76,3.6,3.6,100,0.00,,,0.31,VWS V14.01,2013-05-11 01:45:00,
2013-05-10 21:48:00,48.6,48.6,29.41,ENE,57,5.4,5.4,100,0.00,,,0.31,VWS V14.01,2013-05-11 01:48:00,
2013-05-10 21:49:00,48.6,48.6,29.41,ENE,57,5.4,5.4,100,0.00,,,0.31,VWS V14.01,2013-05-11 01:49:00,
2013-05-10 21:50:00,48.6,48.6,29.41,ESE,119,7.6,7.6,100,0.00,,,0.31,VWS V14.01,2013-05-11 01:50:00,
2013-05-10 21:53:00,48.6,48.6,29.41,ESE,119,7.6,7.6,100,0.00,,,0.31,VWS V14.01,2013-05-11 01:53:00,
2013-05-10 21:54:00,48.6,48.6,29.41,ESE,119,7.6,7.6,100,0.00,,,0.31,VWS V14.01,2013-05-11 01:54:00,
2013-05-10 21:55:00,48.6,48.6,29.41,ESE,119,7.6,7.6,100,0.00,,,0.31,VWS V14.01,2013-05-11 01:55:00,
2013-05-10 21:58:00,48.6,48.6,29.41,ENE,67,5.4,7.6,100,0.00,,,0.31,VWS V14.01,2013-05-11 01:58:00,
2013-05-10 22:00:00,48.6,48.6,29.41,ENE,68,3.6,3.6,100,0.00,,,0.31,VWS V14.01,2013-05-11 02:00:00,
2013-05-10 22:03:00,48.6,48.6,29.41,NE,38,3.1,5.4,100,0.00,,,0.31,VWS V14.01,2013-05-11 02:03:00,
2013-05-10 22:05:00,48.6,48.6,29.41,NE,38,3.1,3.1,100,0.00,,,0.31,VWS V14.01,2013-05-11 02:05:00,
2013-05-10 22:08:00,48.6,48.6,29.41,East,85,5.4,5.4,100,0.00,,,0.31,VWS V14.01,2013-05-11 02:08:00,
2013-05-10 22:10:00,48.6,48.6,29.41,ENE,65,5.4,5.4,100,0.00,,,0.31,VWS V14.01,2013-05-11 02:10:00,
2013-05-10 22:13:00,48.6,48.6,29.41,East,82,6.3,6.3,100,0.00,,,0.31,VWS V14.01,2013-05-11 02:13:00,
2013-05-10 22:15:00,48.6,48.6,29.41,ENE,60,7.6,7.6,100,0.00,,,0.31,VWS V14.01,2013-05-11 02:15:00,
2013-05-10 22:18:00,48.6,48.6,29.41,ENE,65,5.8,5.8,100,0.00,,,0.31,VWS V14.01,2013-05-11 02:18:00,
2013-05-10 22:20:00,48.6,48.6,29.41,ENE,61,3.6,5.8,100,0.00,,,0.31,VWS V14.01,2013-05-11 02:20:00,
2013-05-10 22:23:00,48.6,48.6,29.41,ENE,61,3.6,3.6,100,0.00,,,0.31,VWS V14.01,2013-05-11 02:23:00,
2013-05-10 22:25:00,48.6,48.6,29.41,ENE,57,10.1,10.1,100,0.00,,,0.31,VWS V14.01,2013-05-11 02:25:00,
2013-05-10 22:26:00,48.6,48.6,29.41,ENE,57,10.1,10.1,100,0.00,,,0.31,VWS V14.01,2013-05-11 02:26:00,
2013-05-10 22:28:00,48.6,48.6,29.41,ENE,70,5.8,5.8,100,0.00,,,0.31,VWS V14.01,2013-05-11 02:28:00,
2013-05-10 22:30:00,48.6,48.6,29.41,ENE,60,8.1,8.1,100,0.00,,,0.31,VWS V14.01,2013-05-11 02:30:00,
2013-05-10 22:31:00,48.6,48.6,29.41,ENE,60,8.1,8.1,100,0.00,,,0.31,VWS V14.01,2013-05-11 02:31:00,
2013-05-10 22:34:00,48.4,48.4,29.41,ENE,60,8.1,8.1,100,0.00,,,0.31,VWS V14.01,2013-05-11 02:34:00,
2013-05-10 22:36:00,48.4,48.4,29.41,ENE,58,5.8,5.8,100,0.00,,,0.31,VWS V14.01,2013-05-11 02:36:00,
2013-05-10 22:39:00,48.4,48.4,29.41,ENE,60,6.3,6.3,100,0.00,,,0.31,VWS V14.01,2013-05-11 02:39:00,
2013-05-10 22:41:00,48.2,48.2,29.41,ENE,75,5.4,6.3,100,0.00,,,0.31,VWS V14.01,2013-05-11 02:41:00,
2013-05-10 22:44:00,48.2,48.2,29.41,ENE,59,4.0,6.7,100,0.00,,,0.31,VWS V14.01,2013-05-11 02:44:00,
2013-05-10 22:46:00,48.2,48.2,29.41,ENE,59,4.0,4.0,100,0.00,,,0.31,VWS V14.01,2013-05-11 02:46:00,
2013-05-10 22:49:00,47.8,47.8,29.41,ENE,66,4.9,4.9,100,0.00,,,0.31,VWS V14.01,2013-05-11 02:49:00,
2013-05-10 22:51:00,47.8,47.8,29.41,NE,46,5.4,5.4,100,0.00,,,0.31,VWS V14.01,2013-05-11 02:51:00,
2013-05-10 22:54:00,47.8,47.8,29.41,ENE,70,5.8,5.8,100,0.00,,,0.31,VWS V14.01,2013-05-11 02:54:00,
2013-05-10 22:56:00,47.8,47.8,29.41,ENE,77,6.3,6.3,100,0.00,,,0.31,VWS V14.01,2013-05-11 02:56:00,
2013-05-10 22:57:00,47.8,47.8,29.41,NE,54,4.9,6.3,100,0.00,,,0.31,VWS V14.01,2013-05-11 02:57:00,
2013-05-10 22:59:00,47.8,47.8,29.41,NE,54,4.9,4.9,100,0.00,,,0.31,VWS V14.01,2013-05-11 02:59:00,
2013-05-10 23:00:00,47.8,47.8,29.41,NE,54,4.9,4.9,100,0.00,,,0.31,VWS V14.01,2013-05-11 03:00:00,
2013-05-10 23:01:00,47.8,47.8,29.41,ENE,61,5.8,5.8,100,0.00,,,0.31,VWS V14.01,2013-05-11 03:01:00,
2013-05-10 23:02:00,47.8,47.8,29.41,ENE,61,5.8,5.8,100,0.00,,,0.31,VWS V14.01,2013-05-11 03:02:00,
2013-05-10 23:05:00,47.8,47.8,29.41,ENE,63,3.6,3.6,100,0.00,,,0.31,VWS V14.01,2013-05-11 03:05:00,
2013-05-10 23:07:00,47.3,47.3,29.41,ENE,57,5.8,5.8,100,0.00,,,0.31,VWS V14.01,2013-05-11 03:07:00,
2013-05-10 23:10:00,47.3,47.3,29.41,ENE,65,5.4,5.4,100,0.00,,,0.31,VWS V14.01,2013-05-11 03:10:00,
2013-05-10 23:12:00,47.3,47.3,29.41,ENE,65,5.4,5.4,100,0.00,,,0.31,VWS V14.01,2013-05-11 03:12:00,
2013-05-10 23:15:00,47.1,47.1,29.41,ENE,62,6.3,6.3,100,0.00,,,0.31,VWS V14.01,2013-05-11 03:15:00,
2013-05-10 23:17:00,46.9,46.9,29.41,ENE,58,10.5,10.5,100,0.00,,,0.31,VWS V14.01,2013-05-11 03:17:00,
2013-05-10 23:20:00,46.9,46.9,29.41,ENE,74,5.8,5.8,100,0.00,,,0.31,VWS V14.01,2013-05-11 03:20:00,
2013-05-10 23:21:00,46.9,46.9,29.41,ENE,76,7.6,7.6,100,0.00,,,0.31,VWS V14.01,2013-05-11 03:21:00,
2013-05-10 23:22:00,46.9,46.9,29.41,ENE,76,7.6,7.6,100,0.00,,,0.31,VWS V14.01,2013-05-11 03:22:00,
2013-05-10 23:23:00,46.9,46.9,29.41,ENE,76,7.6,7.6,100,0.00,,,0.31,VWS V14.01,2013-05-11 03:23:00,
2013-05-10 23:25:00,46.9,46.9,29.41,East,89,7.2,7.2,100,0.00,,,0.31,VWS V14.01,2013-05-11 03:25:00,
2013-05-10 23:26:00,46.9,46.9,29.44,ENE,57,5.4,5.4,100,0.00,,,0.31,VWS V14.01,2013-05-11 03:26:00,
2013-05-10 23:27:00,46.9,46.9,29.44,ENE,57,5.4,5.4,100,0.00,,,0.31,VWS V14.01,2013-05-11 03:27:00,
2013-05-10 23:28:00,46.9,46.9,29.44,ENE,76,7.6,7.6,100,0.00,,,0.31,VWS V14.01,2013-05-11 03:28:00,
2013-05-10 23:30:00,46.9,46.9,29.44,ENE,78,5.4,5.4,100,0.00,,,0.31,VWS V14.01,2013-05-11 03:30:00,
2013-05-10 23:31:00,46.9,46.9,29.44,ENE,78,5.4,5.4,100,0.00,,,0.31,VWS V14.01,2013-05-11 03:31:00,
2013-05-10 23:32:00,46.9,46.9,29.44,East,84,4.0,5.4,100,0.00,,,0.31,VWS V14.01,2013-05-11 03:32:00,
2013-05-10 23:33:00,46.9,46.9,29.44,East,84,4.0,4.0,100,0.00,,,0.31,VWS V14.01,2013-05-11 03:33:00,
2013-05-10 23:35:00,46.9,46.9,29.44,ENE,77,11.0,11.0,100,0.00,,,0.31,VWS V14.01,2013-05-11 03:35:00,
2013-05-10 23:36:00,46.9,46.9,29.44,East,89,8.1,11.0,100,0.00,,,0.31,VWS V14.01,2013-05-11 03:36:00,
2013-05-10 23:37:00,46.9,46.9,29.44,ENE,73,5.8,5.8,100,0.00,,,0.31,VWS V14.01,2013-05-11 03:37:00,
2013-05-10 23:38:00,46.9,46.9,29.44,ENE,77,4.0,5.8,100,0.00,,,0.31,VWS V14.01,2013-05-11 03:38:00,
2013-05-10 23:40:00,46.8,46.8,29.44,ENE,77,4.0,4.0,100,0.00,,,0.31,VWS V14.01,2013-05-11 03:40:00,
2013-05-10 23:41:00,46.8,46.8,29.44,ENE,69,5.8,5.8,100,0.00,,,0.31,VWS V14.01,2013-05-11 03:41:00,
2013-05-10 23:42:00,46.9,46.9,29.44,ENE,69,5.8,5.8,100,0.00,,,0.31,VWS V14.01,2013-05-11 03:42:00,
2013-05-10 23:43:00,46.9,46.9,29.44,NE,46,3.1,5.8,100,0.00,,,0.31,VWS V14.01,2013-05-11 03:43:00,
2013-05-10 23:45:00,46.9,46.9,29.44,NE,52,4.0,5.8,100,0.00,,,0.31,VWS V14.01,2013-05-11 03:45:00,
2013-05-10 23:46:00,46.9,46.9,29.44,ENE,60,5.4,5.4,100,0.00,,,0.31,VWS V14.01,2013-05-11 03:46:00,
2013-05-10 23:47:00,46.8,46.8,29.44,ENE,67,5.4,5.4,100,0.00,,,0.31,VWS V14.01,2013-05-11 03:47:00,
2013-05-10 23:48:00,46.8,46.8,29.44,ENE,66,7.6,7.6,100,0.00,,,0.31,VWS V14.01,2013-05-11 03:48:00,
2013-05-10 23:50:00,46.8,46.8,29.44,ENE,78,2.7,2.7,100,0.00,,,0.31,VWS V14.01,2013-05-11 03:50:00,
2013-05-10 23:51:00,46.6,46.6,29.44,ENE,78,2.7,2.7,100,0.00,,,0.31,VWS V14.01,2013-05-11 03:51:00,
2013-05-10 23:52:00,46.6,46.6,29.44,ENE,78,2.7,2.7,100,0.00,,,0.31,VWS V14.01,2013-05-11 03:52:00,
2013-05-10 23:53:00,46.6,46.6,29.44,East,83,7.6,7.6,100,0.00,,,0.31,VWS V14.01,2013-05-11 03:53:00,
2013-05-10 23:55:00,46.6,46.6,29.44,East,84,2.7,6.3,100,0.00,,,0.31,VWS V14.01,2013-05-11 03:55:00,
2013-05-10 23:56:00,46.6,46.6,29.44,East,84,2.7,2.7,100,0.00,,,0.31,VWS V14.01,2013-05-11 03:56:00,
2013-05-10 23:58:00,46.4,46.4,29.44,East,84,2.7,2.7,100,0.00,,,0.31,VWS V14.01,2013-05-11 03:58:00,
2013-05-10 23:59:00,46.4,46.4,29.44,ENE,74,4.0,4.0,100,0.00,,,0.31,VWS V14.01,2013-05-11 03:59:00,